CW5738 Weather Reports


time (UTC)temp
F
wind
direction
speed
knots
gust
knots
rain 1hr
in
rain 24hr
in
rain mn
in
humidity
%
barometer
mb
20260506103329 50 245 13.9 22.6 0.00 0.00 0.00 46 1016.8
20260506103221 50 360 14.8 22.6 0.00 0.00 0.00 46 1016.8
20260506103150 50 360 13.9 22.6 0.00 0.00 0.00 46 1016.8
20260506103015 50 252 12.2 22.6 0.00 0.00 0.00 46 1016.9
20260506102925 50 251 11.3 22.6 0.00 0.00 0.00 46 1016.9
20260506102822 50 258 12.2 22.6 0.00 0.00 0.00 46 1016.9
20260506102714 50 215 13.9 22.6 0.00 0.00 0.00 46 1016.9
20260506102628 50 360 14.8 22.6 0.00 0.00 0.00 46 1016.9
20260506102518 50 360 16.5 22.6 0.00 0.00 0.00 46 1016.9
20260506102428 50 360 16.5 22.6 0.00 0.00 0.00 46 1016.9
20260506102332 50 360 15.6 22.6 0.00 0.00 0.00 46 1016.9
20260506102227 50 360 13.0 18.2 0.00 0.00 0.00 46 1016.9
20260506102123 50 360 12.2 18.2 0.00 0.00 0.00 46 1016.9
20260506102020 50 248 11.3 20.0 0.00 0.00 0.00 47 1016.9
20260506101910 50 265 11.3 20.0 0.00 0.00 0.00 47 1016.9
20260506101843 50 360 11.3 20.0 0.00 0.00 0.00 46 1016.9
20260506101712 51 254 12.2 20.0 0.00 0.00 0.00 46 1016.9
20260506101625 51 360 12.2 20.0 0.00 0.00 0.00 46 1016.9
20260506101528 51 360 13.0 20.0 0.00 0.00 0.00 47 1016.8
20260506101418 51 360 13.9 20.0 0.00 0.00 0.00 46 1016.8
20260506101314 51 250 13.9 21.7 0.00 0.00 0.00 46 1016.8
20260506101230 51 239 13.9 21.7 0.00 0.00 0.00 46 1016.8
20260506101120 51 239 13.9 21.7 0.00 0.00 0.00 47 1016.8
20260506101030 51 360 13.9 21.7 0.00 0.00 0.00 47 1016.8
20260506100927 51 252 13.9 21.7 0.00 0.00 0.00 47 1016.8
20260506100817 51 250 13.9 21.7 0.00 0.00 0.00 47 1016.8
20260506100726 51 240 14.8 21.7 0.00 0.00 0.00 47 1016.8
20260506100626 51 240 15.6 21.7 0.00 0.00 0.00 47 1016.8
20260506100522 51 360 15.6 21.7 0.00 0.00 0.00 47 1016.8
20260506100418 51 360 13.9 20.0 0.00 0.00 0.00 47 1016.8
20260506100318 51 360 13.9 24.3 0.00 0.00 0.00 47 1016.8
20260506100218 51 238 14.8 24.3 0.00 0.00 0.00 47 1016.8
20260506100128 51 360 14.8 24.3 0.00 0.00 0.00 47 1016.8
20260506100014 51 240 12.2 24.3 0.00 0.00 0.00 47 1016.6
20260506095923 51 240 11.3 24.3 0.00 0.00 0.00 47 1016.6
20260506095820 51 215 13.0 24.3 0.00 0.00 0.00 47 1016.6
20260506095716 51 238 14.8 24.3 0.00 0.00 0.00 47 1016.6
20260506095626 51 360 16.5 24.3 0.00 0.00 0.00 47 1016.6
20260506095516 51 360 14.8 24.3 0.00 0.00 0.00 47 1016.6
20260506095446 51 360 14.8 20.9 0.00 0.00 0.00 47 1016.6
20260506095322 51 254 14.8 20.0 0.00 0.00 0.00 47 1016.6
20260506095219 51 251 14.8 20.0 0.00 0.00 0.00 47 1016.6
20260506095129 51 200 13.0 20.0 0.00 0.00 0.00 47 1016.6
20260506095039 51 360 13.0 20.0 0.00 0.00 0.00 47 1016.6
20260506094924 51 243 13.0 20.0 0.00 0.00 0.00 47 1016.6
20260506094823 51 228 14.8 20.0 0.00 0.00 0.00 47 1016.6
20260506094713 51 245 15.6 20.0 0.00 0.00 0.00 47 1016.6
20260506094641 51 360 16.5 20.0 0.00 0.00 0.00 47 1016.6
20260506094520 51 229 14.8 20.0 0.00 0.00 0.00 47 1016.5
20260506094430 51 360 13.9 20.0 0.00 0.00 0.00 47 1016.5
20260506094320 51 225 12.2 20.0 0.00 0.00 0.00 47 1016.5
20260506094213 51 229 12.2 20.0 0.00 0.00 0.00 47 1016.5
20260506094127 51 233 12.2 20.0 0.00 0.00 0.00 47 1016.5
20260506094023 51 360 13.0 20.9 0.00 0.00 0.00 47 1016.5
20260506093919 51 246 12.2 20.9 0.00 0.00 0.00 47 1016.5
20260506093829 51 360 12.2 20.9 0.00 0.00 0.00 47 1016.5
20260506093725 51 360 12.2 20.9 0.00 0.00 0.00 46 1016.5
20260506093615 51 360 12.2 20.9 0.00 0.00 0.00 46 1016.5
20260506093529 51 234 13.0 20.9 0.00 0.00 0.00 46 1016.5
20260506093445 51 230 13.9 20.9 0.00 0.00 0.00 46 1016.5
20260506093321 51 360 14.8 20.9 0.00 0.00 0.00 47 1016.5
20260506093214 51 232 12.2 20.0 0.00 0.00 0.00 47 1016.5
20260506093124 51 238 12.2 20.0 0.00 0.00 0.00 47 1016.5
20260506093023 51 360 13.0 20.0 0.00 0.00 0.00 47 1016.5
20260506092917 51 238 13.9 20.0 0.00 0.00 0.00 47 1016.5
20260506092827 51 234 14.8 20.0 0.00 0.00 0.00 47 1016.5
20260506092737 51 360 13.0 20.0 0.00 0.00 0.00 46 1016.5
20260506092613 51 360 12.2 20.0 0.00 0.00 0.00 46 1016.5
20260506092526 51 360 11.3 20.9 0.00 0.00 0.00 46 1016.5
20260506092420 51 360 12.2 20.9 0.00 0.00 0.00 46 1016.5
20260506092330 51 360 13.9 20.9 0.00 0.00 0.00 46 1016.5
20260506092220 51 234 12.2 20.9 0.00 0.00 0.00 46 1016.5
20260506092132 51 360 11.3 20.9 0.00 0.00 0.00 46 1016.5
20260506092029 51 360 10.4 20.9 0.00 0.00 0.00 46 1016.5
20260506091923 51 360 12.2 20.9 0.00 0.00 0.00 46 1016.5
20260506091832 51 360 13.9 20.9 0.00 0.00 0.00 46 1016.5
20260506091728 51 241 13.0 20.9 0.00 0.00 0.00 46 1016.5
20260506091634 51 360 12.2 20.0 0.00 0.00 0.00 46 1016.5
20260506091513 52 225 13.0 23.5 0.00 0.00 0.00 46 1016.4
20260506091426 52 240 13.0 23.5 0.00 0.00 0.00 46 1016.4
20260506091320 52 234 13.0 23.5 0.00 0.00 0.00 45 1016.4
20260506091216 52 360 13.9 23.5 0.00 0.00 0.00 45 1016.4
20260506091126 52 238 13.9 23.5 0.00 0.00 0.00 45 1016.4
20260506091019 52 360 13.0 23.5 0.00 0.00 0.00 45 1016.4
20260506090918 52 360 15.6 23.5 0.00 0.00 0.00 45 1016.4
20260506090815 52 235 17.4 23.5 0.00 0.00 0.00 45 1016.4
20260506090725 52 234 17.4 23.5 0.00 0.00 0.00 45 1016.4
20260506090618 52 360 14.8 20.9 0.00 0.00 0.00 45 1016.4
20260506090514 52 360 13.9 21.7 0.00 0.00 0.00 45 1016.4
20260506090430 52 360 14.8 26.1 0.00 0.00 0.00 45 1016.4
20260506090320 52 360 13.9 26.1 0.00 0.00 0.00 44 1016.4
20260506090220 52 235 12.2 26.1 0.00 0.00 0.00 44 1016.4
20260506090140 52 360 12.2 26.1 0.00 0.00 0.00 44 1016.4
20260506090019 52 360 13.0 26.1 0.00 0.00 0.00 44 1016.5
20260506085928 52 360 14.8 26.1 0.00 0.00 0.00 44 1016.5
20260506085821 52 266 16.5 26.1 0.00 0.00 0.00 44 1016.5
20260506085718 52 360 16.5 26.1 0.00 0.00 0.00 44 1016.5
20260506085614 52 360 13.0 22.6 0.00 0.00 0.00 44 1016.5
20260506085527 52 360 13.0 22.6 0.00 0.00 0.00 44 1016.5
20260506085417 52 234 12.2 22.6 0.00 0.00 0.00 44 1016.5
20260506085327 52 253 12.2 22.6 0.00 0.00 0.00 44 1016.5
20260506085220 52 360 13.9 22.6 0.00 0.00 0.00 44 1016.5
20260506085117 52 360 14.8 22.6 0.00 0.00 0.00 44 1016.5
20260506085027 52 240 16.5 22.6 0.00 0.00 0.00 44 1016.5
20260506084937 52 238 14.8 22.6 0.00 0.00 0.00 44 1016.5
20260506084813 52 360 11.3 22.6 0.00 0.00 0.00 44 1016.5
20260506084734 52 230 9.6 19.1 0.00 0.00 0.00 44 1016.5
20260506084632 52 263 8.7 19.1 0.00 0.00 0.00 44 1016.5
20260506084514 52 263 8.7 19.1 0.00 0.00 0.00 44 1016.4
20260506084430 52 250 8.7 19.1 0.00 0.00 0.00 44 1016.4
20260506084320 52 271 10.4 19.1 0.00 0.00 0.00 44 1016.4
20260506084233 52 245 12.2 19.1 0.00 0.00 0.00 44 1016.4
20260506084123 52 360 13.9 19.1 0.00 0.00 0.00 44 1016.4
20260506084017 52 360 12.2 17.4 0.00 0.00 0.00 44 1016.4
20260506083927 52 211 11.3 17.4 0.00 0.00 0.00 44 1016.4
20260506083819 52 360 11.3 15.6 0.00 0.00 0.00 44 1016.4
20260506083729 52 225 11.3 17.4 0.00 0.00 0.00 44 1016.4
20260506083619 52 227 12.2 18.2 0.00 0.00 0.00 44 1016.4
20260506083520 52 246 10.4 18.2 0.00 0.00 0.00 43 1016.4
20260506083429 52 245 9.6 20.0 0.00 0.00 0.00 43 1016.4
20260506083332 52 250 8.7 20.0 0.00 0.00 0.00 43 1016.4
20260506083232 52 282 8.7 20.9 0.00 0.00 0.00 43 1016.4
20260506083129 52 257 10.4 20.9 0.00 0.00 0.00 43 1016.4
20260506083027 52 360 12.2 20.9 0.00 0.00 0.00 43 1016.3
20260506082921 52 262 13.0 20.9 0.00 0.00 0.00 43 1016.3
20260506082811 52 360 13.9 20.9 0.00 0.00 0.00 43 1016.3
20260506082730 52 360 13.9 20.9 0.00 0.00 0.00 43 1016.3
20260506082622 52 360 13.0 20.9 0.00 0.00 0.00 43 1016.3
20260506082518 52 360 12.2 20.9 0.00 0.00 0.00 43 1016.3
20260506082428 52 360 13.9 20.9 0.00 0.00 0.00 43 1016.3
20260506082328 52 360 13.0 20.9 0.00 0.00 0.00 43 1016.3
20260506082238 52 232 13.0 20.9 0.00 0.00 0.00 43 1016.3
20260506082114 52 241 13.0 21.7 0.00 0.00 0.00 43 1016.3
20260506082024 53 360 13.0 21.7 0.00 0.00 0.00 43 1016.3
20260506081937 53 360 13.9 21.7 0.00 0.00 0.00 43 1016.3
20260506081817 53 244 15.6 21.7 0.00 0.00 0.00 43 1016.3
20260506081723 52 360 15.6 21.7 0.00 0.00 0.00 43 1016.3
20260506081633 53 360 15.6 21.7 0.00 0.00 0.00 43 1016.3
20260506081532 52 360 15.6 21.7 0.00 0.00 0.00 43 1016.4
20260506081428 52 228 15.6 21.7 0.00 0.00 0.00 43 1016.4
20260506081317 52 360 13.9 21.7 0.00 0.00 0.00 43 1016.4
20260506081231 53 238 13.0 21.7 0.00 0.00 0.00 42 1016.4
20260506081121 52 195 12.2 21.7 0.00 0.00 0.00 42 1016.4
20260506081011 53 260 12.2 21.7 0.00 0.00 0.00 42 1016.4
20260506080924 53 249 13.9 21.7 0.00 0.00 0.00 42 1016.4
20260506080834 53 240 14.8 21.7 0.00 0.00 0.00 42 1016.4
20260506080714 53 360 13.9 21.7 0.00 0.00 0.00 42 1016.4
20260506080624 53 360 11.3 19.1 0.00 0.00 0.00 42 1016.4
20260506080543 53 234 10.4 19.1 0.00 0.00 0.00 42 1016.4
20260506080422 53 231 11.3 19.1 0.00 0.00 0.00 41 1016.4
20260506080332 53 360 12.2 19.1 0.00 0.00 0.00 41 1016.4
20260506080233 53 239 13.0 19.1 0.00 0.00 0.00 41 1016.4
20260506080133 53 244 13.0 19.1 0.00 0.00 0.00 41 1016.4
20260506073524 53 360 11.3 19.1 0.00 0.00 0.00 38 1016.5
20260506073443 53 227 12.2 19.1 0.00 0.00 0.00 38 1016.5
20260506073322 53 360 13.0 19.1 0.00 0.00 0.00 38 1016.5
20260506073223 53 250 11.3 19.1 0.00 0.00 0.00 38 1016.5
20260506073137 53 237 8.7 19.1 0.00 0.00 0.00 38 1016.5
20260506073022 53 241 10.4 19.1 0.00 0.00 0.00 39 1016.4
20260506072932 53 237 12.2 19.1 0.00 0.00 0.00 38 1016.4
20260506072828 53 360 12.2 19.1 0.00 0.00 0.00 38 1016.4
20260506072721 53 360 11.3 18.2 0.00 0.00 0.00 37 1016.4
20260506072630 53 360 12.2 18.2 0.00 0.00 0.00 37 1016.4
20260506072531 53 360 11.3 18.2 0.00 0.00 0.00 37 1016.4
20260506072420 53 223 11.3 18.2 0.00 0.00 0.00 37 1016.4
20260506072317 53 360 12.2 18.2 0.00 0.00 0.00 37 1016.4
20260506072227 53 360 13.0 18.2 0.00 0.00 0.00 36 1016.4
20260506072123 53 240 13.9 18.2 0.00 0.00 0.00 36 1016.4
20260506072015 53 223 13.0 18.2 0.00 0.00 0.00 36 1016.4
20260506071929 53 231 12.2 18.2 0.00 0.00 0.00 36 1016.4
20260506071819 53 360 11.3 18.2 0.00 0.00 0.00 36 1016.4
20260506071720 53 228 12.2 18.2 0.00 0.00 0.00 36 1016.4
20260506071629 54 360 13.0 18.2 0.00 0.00 0.00 36 1016.4
20260506071514 54 215 12.2 18.2 0.00 0.00 0.00 36 1016.3
20260506071428 54 234 10.4 16.5 0.00 0.00 0.00 36 1016.3
20260506071324 54 242 10.4 17.4 0.00 0.00 0.00 36 1016.3
20260506071220 54 360 11.3 18.2 0.00 0.00 0.00 36 1016.3
20260506071110 54 360 10.4 18.2 0.00 0.00 0.00 36 1016.3
20260506071029 54 230 10.4 19.1 0.00 0.00 0.00 36 1016.3
20260506070939 54 221 10.4 20.9 0.00 0.00 0.00 35 1016.3
20260506070822 54 248 12.2 20.9 0.00 0.00 0.00 35 1016.3
20260506070732 54 360 12.2 20.9 0.00 0.00 0.00 35 1016.3
20260506070642 54 229 13.0 20.9 0.00 0.00 0.00 35 1016.3
20260506070524 54 254 13.0 20.9 0.00 0.00 0.00 35 1016.3
20260506070420 54 259 13.9 20.9 0.00 0.00 0.00 35 1016.3
20260506070333 54 233 14.8 20.9 0.00 0.00 0.00 35 1016.3
20260506070217 54 360 14.8 20.9 0.00 0.00 0.00 35 1016.3
20260506070136 54 261 13.0 20.9 0.00 0.00 0.00 35 1016.3
20260506062514 55 360 14.8 23.5 0.00 0.00 0.00 33 1016.1
20260506062424 55 235 14.8 23.5 0.00 0.00 0.00 33 1016.1
20260506062317 55 360 13.9 23.5 0.00 0.00 0.00 33 1016.1
20260506062231 55 360 13.9 23.5 0.00 0.00 0.00 33 1016.1
20260506062121 55 360 12.2 23.5 0.00 0.00 0.00 33 1016.1
20260506062031 55 360 13.0 23.5 0.00 0.00 0.00 33 1016.1
20260506061941 55 275 15.6 23.5 0.00 0.00 0.00 33 1016.1
20260506061817 55 360 16.5 23.5 0.00 0.00 0.00 32 1016.1
20260506061711 55 252 14.8 23.5 0.00 0.00 0.00 32 1016.1
20260506061634 55 244 14.8 23.5 0.00 0.00 0.00 32 1016.1
20260506061520 55 248 14.8 23.5 0.00 0.00 0.00 32 1016.1
20260506061430 55 237 14.8 23.5 0.00 0.00 0.00 32 1016.1
20260506061325 55 236 15.6 23.5 0.00 0.00 0.00 32 1016.1
20260506061215 55 266 14.8 23.5 0.00 0.00 0.00 32 1016.1
20260506061129 55 221 14.8 23.5 0.00 0.00 0.00 32 1016.1
20260506061019 55 360 13.0 22.6 0.00 0.00 0.00 32 1016.1
20260506060915 55 258 15.6 22.6 0.00 0.00 0.00 32 1016.1
20260506060825 55 360 14.8 22.6 0.00 0.00 0.00 31 1016.1
20260506060735 55 360 14.8 21.7 0.00 0.00 0.00 31 1016.1
20260506060615 55 360 13.9 20.9 0.00 0.00 0.00 31 1016.1
20260506060528 55 360 13.9 20.9 0.00 0.00 0.00 31 1016.1
20260506060418 56 239 12.2 20.9 0.00 0.00 0.00 31 1016.1
20260506060328 56 360 10.4 20.9 0.00 0.00 0.00 31 1016.1
20260506060218 56 360 12.2 20.9 0.00 0.00 0.00 31 1016.1
20260506060159 56 360 12.2 20.9 0.00 0.00 0.00 31 1016.1
20260506051332 57 360 9.6 26.1 0.00 0.00 0.00 30 1015.6
20260506051222 57 242 10.4 26.1 0.00 0.00 0.00 30 1015.6
20260506051117 57 235 10.4 26.1 0.00 0.00 0.00 30 1015.6
20260506051029 57 360 10.4 26.1 0.00 0.00 0.00 30 1015.6
20260506050925 57 262 13.9 26.9 0.00 0.00 0.00 29 1015.6
20260506050844 57 360 14.8 26.9 0.00 0.00 0.00 30 1015.6
20260506050740 57 237 13.0 26.9 0.00 0.00 0.00 30 1015.6
20260506050636 57 360 12.2 26.9 0.00 0.00 0.00 30 1015.6
20260506050519 57 224 11.3 26.9 0.00 0.00 0.00 30 1015.6
20260506050429 57 229 10.4 26.9 0.00 0.00 0.00 30 1015.6
20260506050342 57 200 9.6 26.9 0.00 0.00 0.00 30 1015.6
20260506050221 57 360 13.0 26.9 0.00 0.00 0.00 30 1015.6
20260506050141 57 360 14.8 26.9 0.00 0.00 0.00 30 1015.6
20260506045114 57 360 12.2 24.3 0.00 0.00 0.00 31 1015.6
20260506045024 57 245 13.0 24.3 0.00 0.00 0.00 31 1015.6
20260506044933 57 257 15.6 23.5 0.00 0.00 0.00 31 1015.6
20260506044829 57 360 14.8 23.5 0.00 0.00 0.00 31 1015.6
20260506044732 57 360 14.8 23.5 0.00 0.00 0.00 31 1015.6
20260506044639 57 360 14.8 23.5 0.00 0.00 0.00 31 1015.6
20260506044518 57 360 11.3 23.5 0.00 0.00 0.00 31 1015.6
20260506044428 57 267 9.6 19.1 0.00 0.00 0.00 32 1015.6
20260506044319 57 360 10.4 19.1 0.00 0.00 0.00 32 1015.6
20260506044215 57 360 10.4 19.1 0.00 0.00 0.00 32 1015.6
20260506044126 57 252 11.3 19.1 0.00 0.00 0.00 31 1015.6
20260506044038 57 360 13.9 19.1 0.00 0.00 0.00 31 1015.6
20260506043924 57 360 13.9 19.1 0.00 0.00 0.00 31 1015.6
20260506043820 57 238 15.6 19.1 0.00 0.00 0.00 31 1015.6
20260506043729 57 225 13.0 19.1 0.00 0.00 0.00 32 1015.6
20260506043623 57 360 11.3 19.1 0.00 0.00 0.00 32 1015.6
20260506043533 57 360 10.4 19.1 0.00 0.00 0.00 32 1015.6
20260506043432 57 256 10.4 19.1 0.00 0.00 0.00 32 1015.6
20260506043322 57 360 10.4 21.7 0.00 0.00 0.00 32 1015.6
20260506043222 57 248 11.3 21.7 0.00 0.00 0.00 32 1015.6
20260506043136 57 234 13.0 21.7 0.00 0.00 0.00 32 1015.6
20260506043018 57 360 12.2 21.7 0.00 0.00 0.00 32 1015.6
20260506042928 57 360 10.4 21.7 0.00 0.00 0.00 32 1015.6
20260506042838 57 360 10.4 21.7 0.00 0.00 0.00 33 1015.6
20260506042734 57 254 11.3 21.7 0.00 0.00 0.00 32 1015.6
20260506042616 57 360 12.2 21.7 0.00 0.00 0.00 33 1015.6
20260506042516 57 360 13.0 21.7 0.00 0.00 0.00 33 1015.6
20260506042446 57 360 11.3 19.1 0.00 0.00 0.00 33 1015.6
20260506042322 57 360 12.2 19.1 0.00 0.00 0.00 33 1015.6
20260506042218 57 360 12.2 19.1 0.00 0.00 0.00 33 1015.6
20260506042114 57 224 13.0 19.1 0.00 0.00 0.00 33 1015.6
20260506042026 57 360 13.0 19.1 0.00 0.00 0.00 33 1015.6
20260506041920 57 205 11.3 19.1 0.00 0.00 0.00 33 1015.6
20260506041830 57 360 10.4 18.2 0.00 0.00 0.00 34 1015.6
20260506041720 57 249 11.3 18.2 0.00 0.00 0.00 34 1015.6
20260506041633 57 223 12.2 18.2 0.00 0.00 0.00 34 1015.6
20260506041518 57 210 10.4 17.4 0.00 0.00 0.00 34 1015.4
20260506041428 57 250 9.6 17.4 0.00 0.00 0.00 35 1015.4
20260506041322 57 360 11.3 16.5 0.00 0.00 0.00 35 1015.4
20260506041215 57 360 11.3 16.5 0.00 0.00 0.00 36 1015.4
20260506041125 57 360 10.4 16.5 0.00 0.00 0.00 36 1015.4
20260506041015 57 240 10.4 20.0 0.00 0.00 0.00 36 1015.4
20260506040928 57 230 9.6 20.0 0.00 0.00 0.00 36 1015.4
20260506040822 57 360 8.7 20.0 0.00 0.00 0.00 36 1015.4
20260506040718 57 243 8.7 20.0 0.00 0.00 0.00 36 1015.4
20260506040631 57 360 8.7 20.0 0.00 0.00 0.00 37 1015.4
20260506040530 57 360 8.7 20.0 0.00 0.00 0.00 37 1015.4
20260506040420 57 239 10.4 20.0 0.00 0.00 0.00 36 1015.4
20260506040316 57 360 12.2 20.0 0.00 0.00 0.00 37 1015.4
20260506040230 57 227 13.0 20.0 0.00 0.00 0.00 37 1015.4
20260506040139 57 360 13.0 20.0 0.00 0.00 0.00 36 1015.4
20260506040017 57 227 10.4 18.2 0.00 0.00 0.00 36 1015.2
20260506035928 57 246 9.6 17.4 0.00 0.00 0.00 37 1015.2
20260506035827 57 360 9.6 17.4 0.00 0.00 0.00 37 1015.2
20260506035736 57 360 11.3 20.0 0.00 0.00 0.00 37 1015.2
20260506035616 57 360 12.2 20.0 0.00 0.00 0.00 37 1015.2
20260506035526 57 360 12.2 20.0 0.00 0.00 0.00 37 1015.2
20260506035416 57 360 10.4 20.0 0.00 0.00 0.00 36 1015.2
20260506035326 57 360 10.4 20.0 0.00 0.00 0.00 36 1015.2
20260506035216 57 360 11.3 20.0 0.00 0.00 0.00 36 1015.2
20260506035113 57 360 12.2 20.0 0.00 0.00 0.00 36 1015.2
20260506035023 57 360 13.0 20.0 0.00 0.00 0.00 36 1015.2
20260506034916 57 264 12.2 20.0 0.00 0.00 0.00 37 1015.2
20260506034832 57 263 11.3 20.0 0.00 0.00 0.00 37 1015.2
20260506034713 57 227 8.7 16.5 0.00 0.00 0.00 37 1015.2
20260506034626 57 234 9.6 16.5 0.00 0.00 0.00 37 1015.2
20260506034525 57 360 12.2 16.5 0.00 0.00 0.00 37 1015.1
20260506034435 57 225 13.0 16.5 0.00 0.00 0.00 38 1015.1
20260506034331 57 360 12.2 17.4 0.00 0.00 0.00 38 1015.1
20260506034221 57 360 11.3 21.7 0.00 0.00 0.00 39 1015.1
20260506034115 57 360 11.3 21.7 0.00 0.00 0.00 39 1015.1
20260506034025 57 360 11.3 21.7 0.00 0.00 0.00 39 1015.1
20260506033915 57 246 11.3 21.7 0.00 0.00 0.00 39 1015.1
20260506033828 57 360 10.4 21.7 0.00 0.00 0.00 39 1015.1
20260506033737 57 262 10.4 21.7 0.00 0.00 0.00 39 1015.1
20260506033620 57 360 11.3 21.7 0.00 0.00 0.00 39 1015.1
20260506033513 57 245 11.3 21.7 0.00 0.00 0.00 39 1015.1
20260506033430 57 285 11.3 21.7 0.00 0.00 0.00 39 1015.1
20260506033319 57 360 11.3 18.2 0.00 0.00 0.00 40 1015.1
20260506033219 57 360 12.2 18.2 0.00 0.00 0.00 40 1015.1
20260506033132 57 360 11.3 18.2 0.00 0.00 0.00 40 1015.1
20260506033015 57 360 11.3 18.2 0.00 0.00 0.00 40 1015.0
20260506032925 57 221 11.3 18.2 0.00 0.00 0.00 40 1015.0
20260506032818 57 219 12.2 20.0 0.00 0.00 0.00 40 1015.0
20260506032728 57 360 12.2 20.0 0.00 0.00 0.00 40 1015.0
20260506032618 57 232 11.3 20.0 0.00 0.00 0.00 40 1015.0
20260506032528 57 265 10.4 20.0 0.00 0.00 0.00 40 1015.0
20260506032442 57 237 9.6 20.0 0.00 0.00 0.00 40 1015.0
20260506032321 57 235 8.7 20.0 0.00 0.00 0.00 40 1015.0
20260506032231 57 360 11.3 20.0 0.00 0.00 0.00 40 1015.0
20260506032133 57 273 13.0 20.0 0.00 0.00 0.00 40 1015.0
20260506032023 57 360 14.8 20.0 0.00 0.00 0.00 40 1015.0
20260506031919 57 360 12.2 19.1 0.00 0.00 0.00 40 1015.0
20260506031832 57 360 10.4 19.1 0.00 0.00 0.00 40 1015.0
20260506031714 57 254 9.6 19.1 0.00 0.00 0.00 40 1015.0
20260506031624 57 228 9.6 19.1 0.00 0.00 0.00 40 1015.0
20260506031545 57 360 9.6 19.1 0.00 0.00 0.00 40 1015.0
20260506031422 57 231 12.2 19.1 0.00 0.00 0.00 40 1015.0
20260506031321 57 360 12.2 19.1 0.00 0.00 0.00 40 1015.0
20260506031231 57 360 11.3 16.5 0.00 0.00 0.00 40 1015.0
20260506031127 57 211 11.3 19.1 0.00 0.00 0.00 40 1015.0
20260506031017 57 360 11.3 19.1 0.00 0.00 0.00 40 1015.0
20260506030927 57 360 8.7 19.1 0.00 0.00 0.00 40 1015.0
20260506030826 57 360 8.7 19.1 0.00 0.00 0.00 40 1015.0
20260506030720 57 360 8.7 19.1 0.00 0.00 0.00 40 1015.0
20260506030630 57 242 8.7 19.1 0.00 0.00 0.00 40 1015.0
20260506030526 57 360 9.6 19.1 0.00 0.00 0.00 40 1015.0
20260506030416 57 232 12.2 19.1 0.00 0.00 0.00 40 1015.0
20260506030329 57 246 13.9 19.1 0.00 0.00 0.00 40 1015.0
20260506030219 57 360 12.2 19.1 0.00 0.00 0.00 40 1015.0
20260506030127 57 360 12.2 19.1 0.00 0.00 0.00 40 1015.0
20260506030029 57 251 12.2 19.1 0.00 0.00 0.00 40 1014.9
20260506025945 57 360 10.4 16.5 0.00 0.00 0.00 40 1014.9
20260506025820 57 360 7.8 14.8 0.00 0.00 0.00 40 1014.9
20260506025731 58 258 7.8 16.5 0.00 0.00 0.00 40 1014.9
20260506025625 58 245 9.6 16.5 0.00 0.00 0.00 40 1014.9
20260506025517 58 240 8.7 16.5 0.00 0.00 0.00 39 1014.9
20260506025427 58 360 7.0 17.4 0.00 0.00 0.00 39 1014.9
20260506025330 58 360 8.7 17.4 0.00 0.00 0.00 39 1014.9
20260506025219 58 360 9.6 17.4 0.00 0.00 0.00 39 1014.9
20260506025116 58 254 8.7 17.4 0.00 0.00 0.00 39 1014.9
20260506025029 58 360 7.8 17.4 0.00 0.00 0.00 39 1014.9
20260506024919 58 360 7.8 17.4 0.00 0.00 0.00 39 1014.9
20260506024832 58 221 7.0 20.9 0.00 0.00 0.00 39 1014.9
20260506024713 58 280 11.3 20.9 0.00 0.00 0.00 39 1014.9
20260506024622 58 260 11.3 20.9 0.00 0.00 0.00 39 1014.9
20260506024528 58 360 9.6 20.9 0.00 0.00 0.00 39 1014.7
20260506024418 58 360 7.0 20.9 0.00 0.00 0.00 38 1014.7
20260506024328 58 239 7.0 20.9 0.00 0.00 0.00 38 1014.7
20260506024238 58 291 11.3 20.9 0.00 0.00 0.00 38 1014.7
20260506024134 58 234 12.2 20.0 0.00 0.00 0.00 38 1014.7
20260506024030 58 360 11.3 20.0 0.00 0.00 0.00 39 1014.7
20260506023924 58 188 8.7 18.2 0.00 0.00 0.00 39 1014.7
20260506023814 58 238 11.3 18.2 0.00 0.00 0.00 39 1014.7
20260506023724 58 360 13.0 18.2 0.00 0.00 0.00 39 1014.7
20260506023620 58 360 13.0 21.7 0.00 0.00 0.00 39 1014.7
20260506023529 58 360 11.3 21.7 0.00 0.00 0.00 39 1014.7
20260506023423 58 235 9.6 21.7 0.00 0.00 0.00 39 1014.7
20260506023320 58 360 10.4 21.7 0.00 0.00 0.00 39 1014.7
20260506023221 58 268 9.6 21.7 0.00 0.00 0.00 39 1014.7
20260506023130 58 258 10.4 21.7 0.00 0.00 0.00 39 1014.7
20260506023032 58 268 12.2 21.7 0.00 0.00 0.00 39 1014.7
20260506022942 58 270 15.6 21.7 0.00 0.00 0.00 39 1014.7
20260506022842 58 360 13.9 21.7 0.00 0.00 0.00 39 1014.7
20260506022738 58 238 10.4 21.7 0.00 0.00 0.00 39 1014.7
20260506022614 58 242 8.7 16.5 0.00 0.00 0.00 39 1014.7
20260506022524 58 260 8.7 16.5 0.00 0.00 0.00 39 1014.7
20260506022417 58 263 11.3 16.5 0.00 0.00 0.00 39 1014.7
20260506022316 58 223 12.2 19.1 0.00 0.00 0.00 39 1014.7
20260506022233 58 360 11.3 19.1 0.00 0.00 0.00 39 1014.7
20260506022129 58 360 11.3 19.1 0.00 0.00 0.00 39 1014.7
20260506022019 58 239 10.4 19.1 0.00 0.00 0.00 39 1014.7
20260506021929 58 229 10.4 19.1 0.00 0.00 0.00 39 1014.7
20260506021819 58 360 10.4 19.1 0.00 0.00 0.00 39 1014.7
20260506021716 58 227 10.4 19.1 0.00 0.00 0.00 39 1014.7
20260506021636 58 360 11.3 19.1 0.00 0.00 0.00 39 1014.7
20260506021518 58 244 11.3 19.1 0.00 0.00 0.00 39 1014.6
20260506021427 58 235 11.3 19.1 0.00 0.00 0.00 39 1014.6
20260506021317 58 360 10.4 19.1 0.00 0.00 0.00 39 1014.6
20260506021231 58 360 11.3 19.1 0.00 0.00 0.00 39 1014.6
20260506021128 58 360 13.0 19.1 0.00 0.00 0.00 39 1014.6
20260506021023 58 259 13.0 19.1 0.00 0.00 0.00 39 1014.6
20260506020920 58 360 12.2 19.1 0.00 0.00 0.00 39 1014.6
20260506020829 58 360 10.4 17.4 0.00 0.00 0.00 39 1014.6
20260506020719 58 227 11.3 17.4 0.00 0.00 0.00 39 1014.6
20260506020613 58 360 13.0 17.4 0.00 0.00 0.00 39 1014.6
20260506020529 58 213 13.0 17.4 0.00 0.00 0.00 39 1014.6
20260506020419 58 360 10.4 17.4 0.00 0.00 0.00 39 1014.6
20260506020329 58 254 9.6 13.9 0.00 0.00 0.00 40 1014.6
20260506020210 58 261 9.6 13.9 0.00 0.00 0.00 40 1014.6
20260506020126 58 360 9.6 13.9 0.00 0.00 0.00 40 1014.6
20260506020025 58 360 8.7 13.9 0.00 0.00 0.00 40 1014.4
20260506015918 58 225 7.8 13.9 0.00 0.00 0.00 40 1014.4
20260506015828 58 259 8.7 13.9 0.00 0.00 0.00 39 1014.4
20260506015723 58 222 8.7 17.4 0.00 0.00 0.00 40 1014.4
20260506015614 58 360 9.6 17.4 0.00 0.00 0.00 39 1014.4
20260506015528 58 242 8.7 17.4 0.00 0.00 0.00 39 1014.4
20260506015424 58 240 7.8 17.4 0.00 0.00 0.00 39 1014.4
20260506015316 58 222 9.6 17.4 0.00 0.00 0.00 39 1014.4
20260506015226 58 360 9.6 17.4 0.00 0.00 0.00 39 1014.4
20260506015136 58 360 11.3 17.4 0.00 0.00 0.00 39 1014.4
20260506015016 58 246 11.3 17.4 0.00 0.00 0.00 39 1014.4
20260506014946 58 245 12.2 17.4 0.00 0.00 0.00 39 1014.4
20260506014822 58 235 11.3 16.5 0.00 0.00 0.00 39 1014.4
20260506014719 58 244 8.7 16.5 0.00 0.00 0.00 39 1014.4
20260506014642 58 360 7.8 16.5 0.00 0.00 0.00 39 1014.4
20260506014528 58 218 8.7 16.5 0.00 0.00 0.00 39 1014.5
20260506014421 58 213 9.6 16.5 0.00 0.00 0.00 39 1014.5
20260506014331 58 217 9.6 16.5 0.00 0.00 0.00 39 1014.5
20260506014221 58 231 10.4 16.5 0.00 0.00 0.00 39 1014.5
20260506014114 59 217 12.2 16.5 0.00 0.00 0.00 39 1014.5
20260506014024 59 360 11.3 16.5 0.00 0.00 0.00 39 1014.5
20260506013920 59 360 9.6 16.5 0.00 0.00 0.00 39 1014.5
20260506013814 59 234 9.6 14.8 0.00 0.00 0.00 39 1014.5
20260506013724 59 360 9.6 13.9 0.00 0.00 0.00 39 1014.5
20260506013617 59 360 9.6 18.2 0.00 0.00 0.00 39 1014.5
20260506013547 59 360 9.6 18.2 0.00 0.00 0.00 39 1014.5
20260506013443 59 238 9.6 18.2 0.00 0.00 0.00 39 1014.5
20260506013339 59 360 8.7 18.2 0.00 0.00 0.00 39 1014.5
20260506013219 59 220 8.7 18.2 0.00 0.00 0.00 39 1014.5
20260506013140 59 244 9.6 18.2 0.00 0.00 0.00 39 1014.5
20260506013025 59 223 9.6 18.2 0.00 0.00 0.00 39 1014.3
20260506012935 59 239 9.6 18.2 0.00 0.00 0.00 39 1014.3
20260506012831 59 207 11.3 18.2 0.00 0.00 0.00 39 1014.3
20260506012740 59 360 11.3 18.2 0.00 0.00 0.00 38 1014.3
20260506012640 59 216 11.3 16.5 0.00 0.00 0.00 39 1014.3
20260506012536 59 205 11.3 21.7 0.00 0.00 0.00 39 1014.3
20260506012432 59 225 11.3 21.7 0.00 0.00 0.00 39 1014.3
20260506012342 59 239 8.7 21.7 0.00 0.00 0.00 39 1014.3
20260506012238 59 250 8.7 21.7 0.00 0.00 0.00 39 1014.3
20260506012117 59 239 10.4 21.7 0.00 0.00 0.00 39 1014.3
20260506012032 59 360 10.4 21.7 0.00 0.00 0.00 39 1014.3
20260506011928 59 360 11.3 21.7 0.00 0.00 0.00 39 1014.3
20260506011824 59 360 11.3 21.7 0.00 0.00 0.00 39 1014.3
20260506011713 59 360 13.0 21.7 0.00 0.00 0.00 39 1014.3
20260506011633 59 238 12.2 19.1 0.00 0.00 0.00 39 1014.3
20260506011516 58 227 10.4 19.1 0.00 0.00 0.00 38 1014.3
20260506011426 59 219 9.6 16.5 0.00 0.00 0.00 38 1014.3
20260506011316 59 227 8.7 22.6 0.00 0.00 0.00 38 1014.3
20260506011229 59 224 8.7 22.6 0.00 0.00 0.00 39 1014.3
20260506011119 59 227 9.6 22.6 0.00 0.00 0.00 39 1014.3
20260506011015 59 360 10.4 22.6 0.00 0.00 0.00 38 1014.3
20260506010929 59 236 9.6 22.6 0.00 0.00 0.00 38 1014.3
20260506010839 59 248 9.6 22.6 0.00 0.00 0.00 38 1014.3
20260506010715 59 360 12.2 22.6 0.00 0.00 0.00 38 1014.3
20260506010628 59 360 13.9 22.6 0.00 0.00 0.00 38 1014.3
20260506010518 59 360 13.0 22.6 0.00 0.00 0.00 38 1014.3
20260506010418 59 227 12.2 20.0 0.00 0.00 0.00 37 1014.3
20260506010327 59 360 13.9 22.6 0.00 0.00 0.00 37 1014.3
20260506010229 59 235 14.8 24.3 0.00 0.00 0.00 37 1014.3
20260506010131 59 240 13.0 26.9 0.00 0.00 0.00 37 1014.3
20260506010016 59 360 10.4 26.9 0.00 0.00 0.00 37 1014.3
20260506005925 59 360 11.3 26.9 0.00 0.00 0.00 37 1014.3
20260506005819 59 221 13.9 26.9 0.00 0.00 0.00 37 1014.3
20260506005732 59 217 15.6 26.9 0.00 0.00 0.00 37 1014.3
20260506005622 59 360 14.8 26.9 0.00 0.00 0.00 37 1014.3
20260506005518 59 360 16.5 26.9 0.00 0.00 0.00 37 1014.3
20260506005428 59 244 19.1 26.9 0.00 0.00 0.00 37 1014.3
20260506005321 59 261 20.0 26.9 0.00 0.00 0.00 36 1014.3
20260506005215 59 238 19.1 26.1 0.00 0.00 0.00 36 1014.3
20260506005145 59 360 19.1 28.7 0.00 0.00 0.00 37 1014.3
20260506005041 59 360 18.2 28.7 0.00 0.00 0.00 37 1014.3
20260506004917 59 238 15.6 28.7 0.00 0.00 0.00 37 1014.3
20260506004830 59 360 15.6 28.7 0.00 0.00 0.00 37 1014.3
20260506004718 59 360 13.9 28.7 0.00 0.00 0.00 37 1014.3
20260506004651 59 360 15.6 28.7 0.00 0.00 0.00 37 1014.3
20260506004519 59 360 19.1 28.7 0.00 0.00 0.00 37 1014.1
20260506004429 59 220 16.5 28.7 0.00 0.00 0.00 37 1014.1
20260506004324 59 239 13.0 28.7 0.00 0.00 0.00 37 1014.1
20260506004218 59 244 11.3 23.5 0.00 0.00 0.00 37 1014.1
20260506004112 59 230 13.0 23.5 0.00 0.00 0.00 37 1014.1
20260506004031 59 237 15.6 23.5 0.00 0.00 0.00 37 1014.1
20260506003927 59 283 16.5 23.5 0.00 0.00 0.00 37 1014.1
20260506003816 59 252 15.6 24.3 0.00 0.00 0.00 37 1014.1
20260506003726 59 240 13.9 26.9 0.00 0.00 0.00 37 1014.1
20260506003620 59 360 13.0 26.9 0.00 0.00 0.00 37 1014.1
20260506003510 59 360 13.0 26.9 0.00 0.00 0.00 37 1014.1
20260506003423 59 360 12.2 26.9 0.00 0.00 0.00 37 1014.1
20260506003313 59 244 13.0 29.5 0.00 0.00 0.00 37 1014.1
20260506003213 59 234 17.4 32.2 0.00 0.00 0.00 37 1014.1
20260506003146 59 360 18.2 32.2 0.00 0.00 0.00 37 1014.1
20260506003015 59 360 17.4 32.2 0.00 0.00 0.00 36 1013.9
20260506002931 59 236 19.1 32.2 0.00 0.00 0.00 36 1013.9
20260506002841 59 224 19.1 32.2 0.00 0.00 0.00 36 1013.9
20260506002717 59 250 18.2 32.2 0.00 0.00 0.00 36 1013.9
20260506002627 59 211 19.1 32.2 0.00 0.00 0.00 36 1013.9
20260506002521 59 238 19.1 33.0 0.00 0.00 0.00 36 1013.9
20260506002414 59 360 19.1 33.0 0.00 0.00 0.00 36 1013.9
20260506002324 59 360 20.0 33.0 0.00 0.00 0.00 36 1013.9
20260506002214 59 360 20.0 33.0 0.00 0.00 0.00 37 1013.9
20260506002124 59 229 20.9 33.0 0.00 0.00 0.00 37 1013.9
20260506002020 59 360 20.9 33.0 0.00 0.00 0.00 36 1013.9
20260506001913 59 237 22.6 33.0 0.00 0.00 0.00 37 1013.9
20260506001830 59 360 23.5 33.0 0.00 0.00 0.00 36 1013.9
20260506001730 59 360 23.5 33.0 0.00 0.00 0.00 37 1013.9
20260506001628 59 360 22.6 32.2 0.00 0.00 0.00 37 1013.9
20260506001527 59 360 23.5 32.2 0.00 0.00 0.00 38 1014.3
20260506001421 59 360 22.6 29.5 0.00 0.00 0.00 38 1014.3
20260506001331 59 360 15.6 29.5 0.00 0.00 0.00 39 1014.3
20260506001227 59 360 12.2 23.5 0.00 0.00 0.00 40 1014.3
20260506001123 59 360 9.6 16.5 0.00 0.00 0.00 42 1014.3
20260506001016 59 247 9.6 19.1 0.00 0.00 0.00 43 1014.3
20260506000926 59 227 10.4 19.1 0.00 0.00 0.00 43 1014.3
20260506000820 59 225 11.3 19.1 0.00 0.00 0.00 43 1014.3
20260506000730 59 360 11.3 19.1 0.00 0.00 0.00 43 1014.3
20260506000623 59 245 10.4 19.1 0.00 0.00 0.00 43 1014.3
20260506000519 59 360 9.6 25.2 0.00 0.00 0.00 43 1014.3
20260506000418 59 233 12.2 25.2 0.00 0.00 0.00 43 1014.3
20260506000315 59 360 12.2 25.2 0.00 0.00 0.00 43 1014.3
20260506000216 59 360 12.2 25.2 0.00 0.00 0.00 43 1014.3
20260506000125 59 360 12.2 25.2 0.00 0.00 0.00 42 1014.3
20260506000030 59 224 13.9 25.2 0.00 0.00 0.00 42 1014.3
20260505235923 59 360 15.6 25.2 0.00 0.00 0.00 43 1014.3
20260505235833 59 360 15.6 25.2 0.00 0.00 0.00 42 1014.3
20260505235732 59 360 15.6 25.2 0.00 0.00 0.00 42 1014.3
20260505235628 59 360 14.8 21.7 0.00 0.00 0.00 42 1014.3
20260505235521 59 360 13.9 21.7 0.00 0.00 0.00 42 1014.3
20260505235418 59 360 13.0 22.6 0.00 0.00 0.00 43 1014.3
20260505235327 59 221 11.3 22.6 0.00 0.00 0.00 43 1014.3
20260505235223 59 211 12.2 22.6 0.00 0.00 0.00 43 1014.3
20260505235117 59 249 10.4 22.6 0.00 0.00 0.00 43 1014.3
20260505235013 58 360 12.2 22.6 0.00 0.00 0.00 43 1014.3
20260505234923 58 360 12.2 25.2 0.00 0.00 0.00 43 1014.3
20260505234816 58 360 14.8 25.2 0.00 0.00 0.00 43 1014.3
20260505234720 58 360 15.6 25.2 0.00 0.00 0.00 43 1014.3
20260505234634 58 360 16.5 25.2 0.00 0.00 0.00 43 1014.3
20260505234536 58 360 14.8 25.2 0.00 0.00 0.00 43 1014.3
20260505234432 58 360 13.9 25.2 0.00 0.00 0.00 44 1014.3
20260505234322 58 204 15.6 25.2 0.00 0.00 0.00 44 1014.3
20260505234218 58 360 15.6 25.2 0.00 0.00 0.00 44 1014.3
20260505234128 58 360 14.8 25.2 0.00 0.00 0.00 44 1014.3
20260505234028 58 238 13.0 21.7 0.00 0.00 0.00 44 1014.3
20260505233937 58 229 12.2 20.9 0.00 0.00 0.00 44 1014.3
20260505233816 58 220 10.4 20.9 0.00 0.00 0.00 45 1014.3
20260505233726 58 220 8.7 20.9 0.00 0.00 0.00 45 1014.3
20260505233636 58 206 7.8 20.9 0.00 0.00 0.00 45 1014.3
20260505233532 58 360 11.3 20.9 0.00 0.00 0.00 44 1014.3
20260505233433 58 225 13.9 20.9 0.00 0.00 0.00 44 1014.3
20260505233322 58 360 14.8 20.9 0.00 0.00 0.00 44 1014.3
20260505233215 58 228 13.9 20.9 0.00 0.00 0.00 44 1014.3
20260505233139 58 360 13.0 20.9 0.00 0.00 0.00 45 1014.3
20260505233038 58 360 13.9 20.0 0.00 0.00 0.00 44 1014.3
20260505232920 58 213 14.8 20.0 0.00 0.00 0.00 44 1014.3
20260505232820 58 227 13.9 20.9 0.00 0.00 0.00 44 1014.3
20260505232716 58 360 13.9 20.9 0.00 0.00 0.00 44 1014.3
20260505232629 59 227 13.0 20.9 0.00 0.00 0.00 45 1014.3
20260505232519 59 236 12.2 20.9 0.00 0.00 0.00 44 1014.3
20260505232429 59 360 11.3 17.4 0.00 0.00 0.00 44 1014.3
20260505232323 59 243 10.4 17.4 0.00 0.00 0.00 45 1014.3
20260505232219 59 227 11.3 19.1 0.00 0.00 0.00 45 1014.3
20260505232111 59 215 11.3 19.1 0.00 0.00 0.00 44 1014.3
20260505232025 59 224 10.4 21.7 0.00 0.00 0.00 45 1014.3
20260505231923 59 240 9.6 21.7 0.00 0.00 0.00 45 1014.3
20260505231820 59 258 9.6 21.7 0.00 0.00 0.00 45 1014.3
20260505231713 59 360 9.6 21.7 0.00 0.00 0.00 45 1014.3
20260505231636 59 360 9.6 21.7 0.00 0.00 0.00 45 1014.3
20260505231515 59 259 10.4 21.7 0.00 0.00 0.00 45 1014.3
20260505231425 59 219 13.0 21.7 0.00 0.00 0.00 44 1014.3
20260505231315 59 243 15.6 21.7 0.00 0.00 0.00 44 1014.3
20260505231215 59 242 14.8 21.7 0.00 0.00 0.00 44 1014.3
20260505231145 59 360 13.0 21.7 0.00 0.00 0.00 44 1014.3
20260505231021 59 360 10.4 21.7 0.00 0.00 0.00 44 1014.3
20260505230914 59 360 8.7 26.1 0.00 0.00 0.00 45 1014.3
20260505230824 59 241 7.8 26.1 0.00 0.00 0.00 45 1014.3
20260505230720 59 263 7.0 26.1 0.00 0.00 0.00 45 1014.3
20260505230614 59 249 8.7 26.1 0.00 0.00 0.00 45 1014.3
20260505230524 59 242 9.6 26.1 0.00 0.00 0.00 44 1014.3
20260505230417 59 207 10.4 26.1 0.00 0.00 0.00 44 1014.3
20260505230327 59 360 11.3 26.1 0.00 0.00 0.00 45 1014.3
20260505230217 59 360 14.8 26.1 0.00 0.00 0.00 45 1014.3
20260505230144 59 360 16.5 26.1 0.00 0.00 0.00 44 1014.3
20260505230028 59 360 13.9 26.1 0.00 0.00 0.00 45 1014.4
20260505225938 59 360 8.7 20.0 0.00 0.00 0.00 45 1014.4
20260505225814 59 229 6.1 19.1 0.00 0.00 0.00 45 1014.4
20260505225744 59 209 7.0 19.1 0.00 0.00 0.00 45 1014.4
20260505225620 59 220 7.8 19.1 0.00 0.00 0.00 45 1014.4
20260505225534 59 214 9.6 19.1 0.00 0.00 0.00 46 1014.4
20260505225430 58 221 8.7 19.1 0.00 0.00 0.00 46 1014.4
20260505225326 58 248 7.8 19.1 0.00 0.00 0.00 46 1014.4
20260505225236 58 244 7.8 19.1 0.00 0.00 0.00 46 1014.4
20260505225115 58 229 10.4 21.7 0.00 0.00 0.00 46 1014.4
20260505225045 58 360 10.4 21.7 0.00 0.00 0.00 46 1014.4
20260505224925 58 223 8.7 21.7 0.00 0.00 0.00 47 1014.4
20260505224815 58 217 7.0 21.7 0.00 0.00 0.00 47 1014.4
20260505224736 58 253 10.4 21.7 0.00 0.00 0.00 46 1014.4
20260505224638 58 232 12.2 21.7 0.00 0.00 0.00 46 1014.4
20260505224537 58 360 13.9 21.7 0.00 0.00 0.00 46 1014.9
20260505224433 58 360 13.0 21.7 0.00 0.00 0.00 46 1014.9
20260505224315 58 360 11.3 21.7 0.00 0.00 0.00 47 1014.9
20260505224229 58 217 9.6 16.5 0.00 0.00 0.00 47 1014.9
20260505224139 58 360 10.4 16.5 0.00 0.00 0.00 47 1014.9
20260505224035 58 219 10.4 16.5 0.00 0.00 0.00 47 1014.9
20260505223931 58 360 9.6 16.5 0.00 0.00 0.00 48 1014.9
20260505223841 57 360 10.4 16.5 0.00 0.00 0.00 48 1014.9
20260505223737 57 231 11.3 16.5 0.00 0.00 0.00 48 1014.9
20260505223623 57 220 12.2 19.1 0.00 0.00 0.00 48 1014.9
20260505223532 57 360 12.2 20.0 0.00 0.00 0.00 48 1014.9
20260505223428 57 360 9.6 20.0 0.00 0.00 0.00 48 1014.9
20260505223321 57 252 9.6 25.2 0.00 0.00 0.00 48 1014.9
20260505223221 57 239 8.7 25.2 0.00 0.00 0.00 48 1014.9
20260505223131 57 263 9.6 25.2 0.00 0.00 0.00 48 1014.9
20260505223014 57 360 12.2 25.2 0.00 0.00 0.00 48 1014.7
20260505222930 57 360 13.9 25.2 0.00 0.00 0.00 48 1014.7
20260505222820 57 247 15.6 25.2 0.00 0.00 0.00 48 1014.7
20260505222730 58 360 15.6 25.2 0.00 0.00 0.00 48 1014.7
20260505222626 58 360 15.6 25.2 0.00 0.00 0.00 47 1014.7
20260505222520 58 221 15.6 25.2 0.00 0.00 0.00 47 1014.7
20260505222419 58 360 13.9 21.7 0.00 0.00 0.00 47 1014.7
20260505222329 58 360 13.9 21.7 0.00 0.00 0.00 47 1014.7
20260505222219 58 264 13.0 21.7 0.00 0.00 0.00 48 1014.7
20260505222129 58 238 12.2 20.0 0.00 0.00 0.00 48 1014.7
20260505222039 58 360 11.3 20.0 0.00 0.00 0.00 47 1014.7
20260505221919 58 248 11.3 21.7 0.00 0.00 0.00 48 1014.7
20260505221829 58 276 13.0 21.7 0.00 0.00 0.00 48 1014.7
20260505221722 58 221 13.0 21.7 0.00 0.00 0.00 48 1014.7
20260505221651 58 211 12.2 21.7 0.00 0.00 0.00 48 1014.7
20260505221517 58 211 9.6 21.7 0.00 0.00 0.00 48 1015.0
20260505221427 58 360 9.6 22.6 0.00 0.00 0.00 48 1015.0
20260505221323 58 240 10.4 22.6 0.00 0.00 0.00 48 1015.0
20260505221213 58 360 13.0 28.7 0.00 0.00 0.00 48 1015.0
20260505221143 58 242 13.9 28.7 0.00 0.00 0.00 48 1015.0
20260505221025 58 360 14.8 28.7 0.00 0.00 0.00 48 1015.0
20260505220922 58 259 13.9 28.7 0.00 0.00 0.00 48 1015.0
20260505220831 57 360 14.8 28.7 0.00 0.00 0.00 48 1015.0
20260505220711 57 210 15.6 28.7 0.00 0.00 0.00 47 1015.0
20260505220624 57 360 18.2 28.7 0.00 0.00 0.00 48 1015.0
20260505220514 57 360 18.2 28.7 0.00 0.00 0.00 47 1015.0
20260505220424 58 360 20.0 27.8 0.00 0.00 0.00 47 1015.0
20260505220317 58 360 18.2 27.8 0.00 0.00 0.00 47 1015.0
20260505220221 58 360 15.6 23.5 0.00 0.00 0.00 47 1015.0
20260505220151 58 241 13.9 22.6 0.00 0.00 0.00 47 1015.0
20260505220022 58 231 12.2 22.6 0.00 0.00 0.00 47 1015.2
20260505215918 58 360 13.9 22.6 0.00 0.00 0.00 47 1015.2
20260505215827 58 223 14.8 22.6 0.00 0.00 0.00 47 1015.2
20260505215724 58 227 15.6 27.8 0.00 0.00 0.00 47 1015.2
20260505215617 58 360 14.8 27.8 0.00 0.00 0.00 48 1015.2
20260505215531 57 360 13.0 27.8 0.00 0.00 0.00 48 1015.2
20260505215420 57 249 8.7 27.8 0.00 0.00 0.00 48 1015.2
20260505215310 57 360 10.4 27.8 0.00 0.00 0.00 48 1015.2
20260505215230 57 228 11.3 27.8 0.00 0.00 0.00 48 1015.2
20260505215119 57 360 14.8 27.8 0.00 0.00 0.00 48 1015.2
20260505215013 57 360 19.1 27.8 0.00 0.00 0.00 48 1015.2
20260505214924 57 360 19.1 27.8 0.00 0.00 0.00 48 1015.2
20260505214813 57 360 16.5 25.2 0.00 0.00 0.00 48 1015.2
20260505214713 57 360 12.2 21.7 0.00 0.00 0.00 49 1015.2
20260505214643 57 360 9.6 20.9 0.00 0.00 0.00 50 1015.2
20260505214526 57 240 7.8 19.1 0.00 0.00 0.00 50 1015.4
20260505214416 57 285 12.2 19.1 0.00 0.00 0.00 50 1015.4
20260505214332 57 360 13.0 19.1 0.00 0.00 0.00 50 1015.4
20260505214222 57 194 12.2 20.9 0.00 0.00 0.00 51 1015.4
20260505214118 56 242 10.4 20.9 0.00 0.00 0.00 51 1015.4
20260505214015 56 254 8.7 20.9 0.00 0.00 0.00 51 1015.4
20260505213925 56 360 7.8 20.9 0.00 0.00 0.00 51 1015.4
20260505213815 56 225 10.4 20.9 0.00 0.00 0.00 51 1015.4
20260505213725 56 238 13.0 20.9 0.00 0.00 0.00 51 1015.4
20260505213618 56 213 14.8 20.9 0.00 0.00 0.00 51 1015.4
20260505213528 56 360 14.8 20.9 0.00 0.00 0.00 51 1015.4
20260505213428 56 226 13.9 20.9 0.00 0.00 0.00 51 1015.4
20260505213341 56 210 12.2 19.1 0.00 0.00 0.00 52 1015.4
20260505213220 56 217 12.2 18.2 0.00 0.00 0.00 53 1015.4
20260505213141 56 208 13.0 18.2 0.00 0.00 0.00 53 1015.4
20260505213020 56 227 11.3 18.2 0.00 0.00 0.00 52 1015.8
20260505212917 56 244 9.6 16.5 0.00 0.00 0.00 52 1015.8
20260505212826 56 360 9.6 16.5 0.00 0.00 0.00 53 1015.8
20260505212716 56 240 10.4 16.5 0.00 0.00 0.00 52 1015.8
20260505212626 56 219 10.4 16.5 0.00 0.00 0.00 53 1015.8
20260505212519 56 238 8.7 16.5 0.00 0.00 0.00 52 1015.8
20260505212413 56 226 9.6 16.5 0.00 0.00 0.00 52 1015.8
20260505212326 56 229 11.3 16.5 0.00 0.00 0.00 52 1015.8
20260505212216 56 360 12.2 16.5 0.00 0.00 0.00 52 1015.8
20260505212126 56 231 11.3 16.5 0.00 0.00 0.00 52 1015.8
20260505212016 56 360 12.2 16.5 0.00 0.00 0.00 52 1015.8
20260505211930 56 211 11.3 16.5 0.00 0.00 0.00 52 1015.8
20260505211840 56 360 8.7 15.6 0.00 0.00 0.00 52 1015.8
20260505211722 56 360 7.0 19.1 0.00 0.00 0.00 53 1015.8
20260505211629 56 232 7.8 19.1 0.00 0.00 0.00 53 1015.8
20260505211527 56 209 9.6 19.1 0.00 0.00 0.00 52 1016.2
20260505211424 56 360 9.6 19.1 0.00 0.00 0.00 53 1016.2
20260505211320 56 360 10.4 19.1 0.00 0.00 0.00 53 1016.2
20260505211231 56 242 10.4 19.1 0.00 0.00 0.00 53 1016.2
20260505211121 56 200 10.4 19.1 0.00 0.00 0.00 53 1016.2
20260505211030 56 360 12.2 19.1 0.00 0.00 0.00 52 1016.2
20260505210927 56 360 12.2 19.1 0.00 0.00 0.00 52 1016.2
20260505210819 56 360 9.6 17.4 0.00 0.00 0.00 53 1016.2
20260505210713 56 225 7.0 16.5 0.00 0.00 0.00 52 1016.2
20260505210626 56 209 7.8 16.5 0.00 0.00 0.00 52 1016.2
20260505210516 56 238 8.7 16.5 0.00 0.00 0.00 52 1016.2
20260505210426 56 214 9.6 16.5 0.00 0.00 0.00 52 1016.2
20260505210316 56 230 7.8 19.1 0.00 0.00 0.00 52 1016.2
20260505210230 57 212 8.7 19.1 0.00 0.00 0.00 52 1016.2
20260505210128 57 267 10.4 19.1 0.00 0.00 0.00 51 1016.2
20260505210029 57 243 11.3 19.1 0.00 0.00 0.00 52 1016.4
20260505205919 57 214 9.6 19.1 0.00 0.00 0.00 52 1016.4
20260505205832 57 360 9.6 19.1 0.00 0.00 0.00 52 1016.4
20260505205726 56 227 12.2 19.1 0.00 0.00 0.00 52 1016.4
20260505205616 56 360 10.4 19.1 0.00 0.00 0.00 52 1016.4
20260505205546 56 228 8.7 19.1 0.00 0.00 0.00 53 1016.4
20260505205428 56 215 8.7 15.6 0.00 0.00 0.00 53 1016.4
20260505205338 56 222 9.6 15.6 0.00 0.00 0.00 53 1016.4
20260505205220 56 236 10.4 15.6 0.00 0.00 0.00 54 1016.4
20260505205114 56 360 9.6 15.6 0.00 0.00 0.00 54 1016.4
20260505205023 56 221 9.6 15.6 0.00 0.00 0.00 54 1016.4
20260505204917 56 360 9.6 16.5 0.00 0.00 0.00 54 1016.4
20260505204829 56 246 9.6 16.5 0.00 0.00 0.00 54 1016.4
20260505204717 56 360 7.8 16.5 0.00 0.00 0.00 55 1016.4
20260505204625 56 215 5.2 16.5 0.00 0.00 0.00 56 1016.4
20260505204531 55 360 4.3 16.5 0.00 0.00 0.00 56 1016.4
20260505204428 55 229 6.1 16.5 0.00 0.00 0.00 55 1016.4
20260505204323 55 211 9.6 16.5 0.00 0.00 0.00 55 1016.4
20260505204216 55 213 13.0 16.5 0.00 0.00 0.00 56 1016.4
20260505204132 55 219 13.0 16.5 0.00 0.00 0.00 56 1016.4
20260505204042 55 223 13.0 16.5 0.00 0.00 0.00 56 1016.4
20260505203922 55 218 12.2 19.1 0.00 0.00 0.00 56 1016.4
20260505203832 55 215 11.3 19.1 0.00 0.00 0.00 56 1016.4
20260505203722 55 227 10.4 19.1 0.00 0.00 0.00 57 1016.4
20260505203632 55 225 10.4 19.1 0.00 0.00 0.00 57 1016.4
20260505203522 55 230 9.6 19.1 0.00 0.00 0.00 58 1016.4
20260505203419 55 213 9.6 19.1 0.00 0.00 0.00 57 1016.4
20260505203329 54 223 11.3 20.0 0.00 0.00 0.00 57 1016.4
20260505203216 54 226 13.0 20.0 0.00 0.00 0.00 57 1016.4
20260505203125 54 360 13.0 20.0 0.00 0.00 0.00 57 1016.4
20260505203030 54 266 11.3 20.0 0.00 0.00 0.00 58 1016.8
20260505202919 54 236 10.4 20.0 0.00 0.00 0.00 58 1016.8
20260505202813 54 360 10.4 23.5 0.00 0.00 0.00 59 1016.8
20260505202743 54 254 11.3 23.5 0.00 0.00 0.00 58 1016.8
20260505202619 54 248 13.0 26.9 0.00 0.00 0.00 58 1016.8
20260505202529 54 244 13.9 26.9 0.00 0.00 0.00 58 1016.8
20260505202422 54 360 11.3 26.9 0.00 0.00 0.00 58 1016.8
20260505202316 54 243 11.3 26.9 0.00 0.00 0.00 59 1016.8
20260505202229 54 227 13.0 26.9 0.00 0.00 0.00 58 1016.8
20260505202139 54 360 13.9 26.9 0.00 0.00 0.00 58 1016.8
20260505202035 54 234 13.9 26.9 0.00 0.00 0.00 59 1016.8
20260505201931 54 229 15.6 26.9 0.00 0.00 0.00 58 1016.8
20260505201841 54 232 17.4 28.7 0.00 0.00 0.00 58 1016.8
20260505201715 54 360 14.8 28.7 0.00 0.00 0.00 58 1016.8
20260505201624 54 258 14.8 28.7 0.00 0.00 0.00 59 1016.8
20260505201526 54 225 14.8 28.7 0.00 0.00 0.00 58 1016.5
20260505201416 54 228 16.5 28.7 0.00 0.00 0.00 58 1016.5
20260505201329 53 227 15.6 28.7 0.00 0.00 0.00 58 1016.5
20260505201223 54 244 17.4 28.7 0.00 0.00 0.00 58 1016.5
20260505201133 54 229 18.2 28.7 0.00 0.00 0.00 58 1016.5
20260505201029 54 237 20.9 28.7 0.00 0.00 0.00 58 1016.5
20260505200919 54 360 20.0 27.8 0.00 0.00 0.00 58 1016.5
20260505200811 54 360 16.5 27.8 0.00 0.00 0.00 58 1016.5
20260505200729 54 360 15.6 24.3 0.00 0.00 0.00 57 1016.5
20260505200621 54 232 15.6 24.3 0.00 0.00 0.00 57 1016.5
20260505200531 54 238 15.6 25.2 0.00 0.00 0.00 57 1016.5
20260505200421 54 240 13.0 25.2 0.00 0.00 0.00 57 1016.5
20260505200314 53 229 15.6 27.8 0.00 0.00 0.00 57 1016.5
20260505200221 53 221 17.4 27.8 0.00 0.00 0.00 57 1016.5
20260505200138 53 360 19.1 28.7 0.00 0.00 0.00 57 1016.5
20260505200025 53 244 16.5 28.7 0.00 0.00 0.00 57 1016.5
20260505195915 53 360 14.8 28.7 0.00 0.00 0.00 58 1016.5
20260505195825 53 360 16.5 28.7 0.00 0.00 0.00 58 1016.5
20260505195718 53 235 14.8 28.7 0.00 0.00 0.00 58 1016.5
20260505195612 53 360 14.8 28.7 0.00 0.00 0.00 58 1016.5
20260505195525 53 360 18.2 28.7 0.00 0.00 0.00 58 1016.5
20260505195415 53 256 19.1 28.7 0.00 0.00 0.00 58 1016.5
20260505195325 53 245 19.1 28.7 0.00 0.00 0.00 59 1016.5
20260505195235 53 360 16.5 30.4 0.00 0.00 0.00 59 1016.5
20260505195135 53 246 16.5 30.4 0.00 0.00 0.00 59 1016.5
20260505195011 53 232 17.4 30.4 0.00 0.00 0.00 59 1016.5
20260505194923 53 360 17.4 30.4 0.00 0.00 0.00 59 1016.5
20260505194833 53 360 16.5 30.4 0.00 0.00 0.00 59 1016.5
20260505194721 53 213 16.5 30.4 0.00 0.00 0.00 59 1016.5
20260505194628 53 215 15.6 30.4 0.00 0.00 0.00 59 1016.5
20260505194514 53 237 19.1 30.4 0.00 0.00 0.00 59 1016.4
20260505194426 53 239 21.7 30.4 0.00 0.00 0.00 58 1016.4
20260505194316 53 247 21.7 29.5 0.00 0.00 0.00 58 1016.4
20260505194226 53 252 21.7 29.5 0.00 0.00 0.00 58 1016.4
20260505194136 53 215 20.0 29.5 0.00 0.00 0.00 59 1016.4
20260505194016 53 236 20.9 30.4 0.00 0.00 0.00 59 1016.4
20260505193929 53 360 19.1 30.4 0.00 0.00 0.00 59 1016.4
20260505193819 53 211 19.1 30.4 0.00 0.00 0.00 59 1016.4
20260505193729 53 238 20.0 30.4 0.00 0.00 0.00 58 1016.4
20260505193622 53 228 21.7 30.4 0.00 0.00 0.00 58 1016.4
20260505193516 54 233 20.9 28.7 0.00 0.00 0.00 57 1016.4
20260505193429 54 360 20.0 26.9 0.00 0.00 0.00 56 1016.4
20260505193325 54 228 16.5 27.8 0.00 0.00 0.00 56 1016.4
20260505193215 54 251 14.8 26.1 0.00 0.00 0.00 56 1016.4
20260505193144 54 263 15.6 26.1 0.00 0.00 0.00 56 1016.4
20260505193028 54 360 15.6 26.1 0.00 0.00 0.00 56 1016.3
20260505192922 53 360 15.6 26.1 0.00 0.00 0.00 57 1016.3
20260505192832 53 231 15.6 31.3 0.00 0.00 0.00 57 1016.3
20260505192722 53 249 18.2 31.3 0.00 0.00 0.00 57 1016.3
20260505192615 53 360 17.4 31.3 0.00 0.00 0.00 57 1016.3
20260505192525 53 250 17.4 31.3 0.00 0.00 0.00 57 1016.3
20260505192419 53 219 15.6 31.3 0.00 0.00 0.00 58 1016.3
20260505192329 53 234 15.6 31.3 0.00 0.00 0.00 59 1016.3
20260505192242 53 360 17.4 31.3 0.00 0.00 0.00 59 1016.3
20260505192118 53 360 17.4 31.3 0.00 0.00 0.00 58 1016.3
20260505192028 53 234 15.6 31.3 0.00 0.00 0.00 59 1016.3
20260505191938 53 360 13.9 30.4 0.00 0.00 0.00 59 1016.3
20260505191838 53 239 16.5 30.4 0.00 0.00 0.00 58 1016.3
20260505191717 53 253 19.1 30.4 0.00 0.00 0.00 58 1016.3
20260505191638 53 240 20.0 30.4 0.00 0.00 0.00 57 1016.3
20260505191517 53 224 21.7 30.4 0.00 0.00 0.00 57 1016.3
20260505191430 53 217 20.9 30.4 0.00 0.00 0.00 57 1016.3
20260505191324 53 241 18.2 30.4 0.00 0.00 0.00 56 1016.3
20260505191217 53 360 18.2 26.9 0.00 0.00 0.00 55 1016.3
20260505191127 53 360 16.5 26.9 0.00 0.00 0.00 55 1016.3
20260505191017 53 360 15.6 26.9 0.00 0.00 0.00 55 1016.3
20260505190910 53 257 13.9 22.6 0.00 0.00 0.00 55 1016.3
20260505190827 53 214 12.2 22.6 0.00 0.00 0.00 56 1016.3
20260505190720 53 219 13.0 22.6 0.00 0.00 0.00 56 1016.3
20260505190616 53 180 11.3 22.6 0.00 0.00 0.00 57 1016.3
20260505190512 52 213 9.6 19.1 0.00 0.00 0.00 58 1016.3
20260505190425 52 226 9.6 17.4 0.00 0.00 0.00 58 1016.3
20260505190321 52 226 10.4 17.4 0.00 0.00 0.00 57 1016.3
20260505190215 52 209 10.4 18.2 0.00 0.00 0.00 58 1016.3
20260505190139 52 360 9.6 14.8 0.00 0.00 0.00 58 1016.3
20260505190017 52 227 10.4 14.8 0.00 0.00 0.00 58 1016.5
20260505185927 52 221 10.4 14.8 0.00 0.00 0.00 58 1016.5
20260505185826 52 224 9.6 17.4 0.00 0.00 0.00 59 1016.5
20260505185729 52 211 9.6 20.9 0.00 0.00 0.00 59 1016.5
20260505185639 52 206 10.4 25.2 0.00 0.00 0.00 59 1016.5
20260505185521 52 202 9.6 25.2 0.00 0.00 0.00 60 1016.5
20260505185411 52 234 7.8 25.2 0.00 0.00 0.00 60 1016.5
20260505185324 52 210 9.6 25.2 0.00 0.00 0.00 59 1016.5
20260505185214 52 218 12.2 25.2 0.00 0.00 0.00 58 1016.5
20260505185128 52 217 13.0 25.2 0.00 0.00 0.00 59 1016.5
20260505185018 52 246 14.8 25.2 0.00 0.00 0.00 58 1016.5
20260505184931 52 227 16.5 25.2 0.00 0.00 0.00 58 1016.5
20260505184821 53 242 16.5 26.1 0.00 0.00 0.00 58 1016.5
20260505184731 53 360 13.9 26.1 0.00 0.00 0.00 57 1016.5
20260505184622 53 360 11.3 26.1 0.00 0.00 0.00 57 1016.5
20260505184524 53 360 9.6 26.1 0.00 0.00 0.00 56 1016.4
20260505184420 53 360 9.6 26.1 0.00 0.00 0.00 55 1016.4
20260505184310 53 360 12.2 26.1 0.00 0.00 0.00 55 1016.4
20260505184230 53 360 14.8 26.1 0.00 0.00 0.00 55 1016.4
20260505184122 53 360 16.5 26.1 0.00 0.00 0.00 54 1016.4
20260505184019 53 360 17.4 26.1 0.00 0.00 0.00 53 1016.4
20260505183929 54 291 13.9 26.1 0.00 0.00 0.00 53 1016.4
20260505183825 54 286 13.9 26.1 0.00 0.00 0.00 53 1016.4
20260505183715 54 275 17.4 26.1 0.00 0.00 0.00 52 1016.4
20260505183631 54 360 19.1 26.1 0.00 0.00 0.00 50 1016.4
20260505183525 54 276 18.2 26.1 0.00 0.00 0.00 50 1016.4
20260505183415 55 360 17.4 26.1 0.00 0.00 0.00 50 1016.4
20260505183325 55 360 16.5 26.1 0.00 0.00 0.00 50 1016.4
20260505183221 55 281 13.0 22.6 0.00 0.00 0.00 49 1016.4
20260505183142 55 292 10.4 20.0 0.00 0.00 0.00 48 1016.4
20260505183021 55 360 7.8 16.5 0.00 0.00 0.00 47 1016.2
20260505182924 55 266 7.0 15.6 0.00 0.00 0.00 45 1016.2
20260505182814 55 274 7.8 15.6 0.00 0.00 0.00 45 1016.2
20260505182724 55 263 8.7 15.6 0.00 0.00 0.00 45 1016.2
20260505182620 55 271 7.8 15.6 0.00 0.00 0.00 45 1016.2
20260505182513 55 257 7.8 15.6 0.00 0.00 0.00 45 1016.2
20260505182427 54 243 8.7 15.6 0.00 0.00 0.00 45 1016.2
20260505182323 54 360 10.4 17.4 0.00 0.00 0.00 45 1016.2
20260505182233 54 190 10.4 17.4 0.00 0.00 0.00 45 1016.2
20260505182129 54 220 11.3 17.4 0.00 0.00 0.00 45 1016.2
20260505182019 54 232 11.3 17.4 0.00 0.00 0.00 45 1016.2
20260505181932 54 360 10.4 17.4 0.00 0.00 0.00 45 1016.2
20260505181826 54 227 10.4 17.4 0.00 0.00 0.00 45 1016.2
20260505181719 54 360 10.4 17.4 0.00 0.00 0.00 45 1016.2
20260505181640 54 259 10.4 17.4 0.00 0.00 0.00 45 1016.2
20260505181519 54 204 10.4 14.8 0.00 0.00 0.00 44 1016.7
20260505181429 54 200 10.4 14.8 0.00 0.00 0.00 45 1016.7
20260505181329 54 227 10.4 14.8 0.00 0.00 0.00 45 1016.7
20260505181222 54 216 10.4 14.8 0.00 0.00 0.00 44 1016.7
20260505181132 54 209 9.6 16.5 0.00 0.00 0.00 44 1016.7
20260505181014 54 360 7.8 16.5 0.00 0.00 0.00 44 1016.7
20260505180910 54 239 6.1 16.5 0.00 0.00 0.00 45 1016.7
20260505180829 54 251 7.0 16.5 0.00 0.00 0.00 45 1016.7
20260505180726 54 360 7.0 16.5 0.00 0.00 0.00 45 1016.7
20260505180616 54 360 8.7 16.5 0.00 0.00 0.00 44 1016.7
20260505180529 54 360 9.6 16.5 0.00 0.00 0.00 44 1016.7
20260505180419 54 232 10.4 17.4 0.00 0.00 0.00 44 1016.7
20260505180329 55 360 9.6 17.4 0.00 0.00 0.00 44 1016.7
20260505180220 54 237 8.7 17.4 0.00 0.00 0.00 45 1016.7
20260505180130 55 223 7.8 17.4 0.00 0.00 0.00 44 1016.7
20260505180029 55 267 7.8 17.4 0.00 0.00 0.00 45 1016.6
20260505175919 55 226 7.8 17.4 0.00 0.00 0.00 45 1016.6
20260505175829 55 238 7.8 17.4 0.00 0.00 0.00 45 1016.6
20260505175739 55 360 9.6 17.4 0.00 0.00 0.00 45 1016.6
20260505175639 55 360 9.6 17.4 0.00 0.00 0.00 45 1016.6
20260505175535 55 360 8.7 17.4 0.00 0.00 0.00 45 1016.6
20260505175417 55 244 8.7 19.1 0.00 0.00 0.00 45 1016.6
20260505175327 55 267 8.7 22.6 0.00 0.00 0.00 44 1016.6
20260505175237 55 225 9.6 22.6 0.00 0.00 0.00 44 1016.6
20260505175133 55 234 9.6 22.6 0.00 0.00 0.00 44 1016.6
20260505175015 55 211 11.3 22.6 0.00 0.00 0.00 44 1016.6
20260505174929 55 228 10.4 22.6 0.00 0.00 0.00 44 1016.6
20260505174825 55 360 10.4 22.6 0.00 0.00 0.00 45 1016.6
20260505174718 55 223 13.9 22.6 0.00 0.00 0.00 44 1016.6
20260505174625 55 227 15.6 22.6 0.00 0.00 0.00 44 1016.6
20260505174510 55 360 13.9 22.6 0.00 0.00 0.00 44 1016.6
20260505174423 55 360 10.4 22.6 0.00 0.00 0.00 44 1016.6
20260505174317 55 360 9.6 18.2 0.00 0.00 0.00 44 1016.6
20260505174213 55 242 10.4 18.2 0.00 0.00 0.00 44 1016.6
20260505174123 55 360 10.4 18.2 0.00 0.00 0.00 44 1016.6
20260505174033 55 360 10.4 18.2 0.00 0.00 0.00 44 1016.6
20260505173929 55 234 11.3 18.2 0.00 0.00 0.00 44 1016.6
20260505173826 55 360 11.3 18.2 0.00 0.00 0.00 43 1016.6
20260505173722 55 360 11.3 18.2 0.00 0.00 0.00 43 1016.6
20260505173632 55 266 12.2 18.2 0.00 0.00 0.00 43 1016.6
20260505173522 55 360 13.9 18.2 0.00 0.00 0.00 43 1016.6
20260505173418 55 360 12.2 18.2 0.00 0.00 0.00 43 1016.6
20260505173328 55 248 11.3 18.2 0.00 0.00 0.00 43 1016.6
20260505173216 55 360 10.4 19.1 0.00 0.00 0.00 43 1016.6
20260505173129 55 360 9.6 19.1 0.00 0.00 0.00 42 1016.6
20260505173028 55 360 10.4 20.0 0.00 0.00 0.00 42 1016.4
20260505172918 55 266 11.3 20.0 0.00 0.00 0.00 42 1016.4
20260505172828 55 360 12.2 20.0 0.00 0.00 0.00 42 1016.4
20260505172725 56 254 13.9 20.0 0.00 0.00 0.00 42 1016.4
20260505172630 56 360 13.9 20.0 0.00 0.00 0.00 42 1016.4
20260505172540 56 202 13.9 20.0 0.00 0.00 0.00 42 1016.4
20260505172416 56 238 13.9 21.7 0.00 0.00 0.00 42 1016.4
20260505172326 56 235 13.9 21.7 0.00 0.00 0.00 42 1016.4
20260505172219 56 360 12.2 21.7 0.00 0.00 0.00 43 1016.4
20260505172133 56 239 11.3 21.7 0.00 0.00 0.00 43 1016.4
20260505172043 56 360 11.3 21.7 0.00 0.00 0.00 43 1016.4
20260505171922 56 238 13.0 21.7 0.00 0.00 0.00 43 1016.4
20260505171815 56 236 13.0 21.7 0.00 0.00 0.00 43 1016.4
20260505171716 56 229 13.9 21.7 0.00 0.00 0.00 42 1016.4
20260505171630 56 360 14.8 21.7 0.00 0.00 0.00 42 1016.4
20260505171529 56 360 13.9 21.7 0.00 0.00 0.00 42 1016.3
20260505171439 56 360 12.2 21.7 0.00 0.00 0.00 42 1016.3
20260505171321 56 231 12.2 21.7 0.00 0.00 0.00 42 1016.3
20260505171231 56 215 13.0 21.7 0.00 0.00 0.00 42 1016.3
20260505171130 56 220 13.0 21.7 0.00 0.00 0.00 42 1016.3
20260505171024 57 360 13.9 21.7 0.00 0.00 0.00 43 1016.3
20260505170917 57 360 13.0 21.7 0.00 0.00 0.00 43 1016.3
20260505170827 57 259 13.9 21.7 0.00 0.00 0.00 43 1016.3
20260505170737 57 360 13.9 22.6 0.00 0.00 0.00 43 1016.3
20260505170633 57 360 14.8 22.6 0.00 0.00 0.00 43 1016.3
20260505170527 57 225 13.0 22.6 0.00 0.00 0.00 43 1016.3
20260505170423 57 360 12.2 22.6 0.00 0.00 0.00 42 1016.3
20260505170319 57 237 13.9 22.6 0.00 0.00 0.00 41 1016.3
20260505170212 57 217 15.6 22.6 0.00 0.00 0.00 41 1016.3
20260505170136 57 360 15.6 22.6 0.00 0.00 0.00 41 1016.3
20260505170024 57 360 13.0 20.0 0.00 0.00 0.00 42 1016.3
20260505165918 57 230 14.8 20.0 0.00 0.00 0.00 41 1016.3
20260505165814 57 360 13.9 19.1 0.00 0.00 0.00 41 1016.3
20260505165744 57 252 13.0 19.1 0.00 0.00 0.00 41 1016.3
20260505165620 57 239 12.2 18.2 0.00 0.00 0.00 41 1016.3
20260505165530 56 360 13.0 18.2 0.00 0.00 0.00 41 1016.3
20260505165423 56 226 11.3 17.4 0.00 0.00 0.00 42 1016.3
20260505165320 56 360 9.6 17.4 0.00 0.00 0.00 42 1016.3
20260505165230 56 236 9.6 17.4 0.00 0.00 0.00 43 1016.3
20260505165120 56 232 10.4 18.2 0.00 0.00 0.00 43 1016.3
20260505165030 56 360 11.3 18.2 0.00 0.00 0.00 42 1016.3
20260505164923 55 215 12.2 20.0 0.00 0.00 0.00 42 1016.3
20260505164817 55 360 12.2 20.0 0.00 0.00 0.00 42 1016.3
20260505164724 55 360 12.2 20.0 0.00 0.00 0.00 42 1016.3
20260505164634 55 360 12.2 20.0 0.00 0.00 0.00 42 1016.3
20260505164516 55 228 12.2 20.0 0.00 0.00 0.00 43 1016.3
20260505164426 55 360 13.0 20.0 0.00 0.00 0.00 43 1016.3
20260505164323 55 360 13.9 20.0 0.00 0.00 0.00 42 1016.3
20260505164233 55 240 14.8 20.0 0.00 0.00 0.00 42 1016.3
20260505164129 55 197 13.9 20.0 0.00 0.00 0.00 42 1016.3
20260505164025 55 239 13.0 20.0 0.00 0.00 0.00 42 1016.3
20260505163924 55 236 10.4 16.5 0.00 0.00 0.00 41 1016.3
20260505163817 55 360 10.4 15.6 0.00 0.00 0.00 42 1016.3
20260505163731 55 360 10.4 15.6 0.00 0.00 0.00 42 1016.3
20260505163627 55 360 10.4 15.6 0.00 0.00 0.00 41 1016.3
20260505163537 55 224 10.4 15.6 0.00 0.00 0.00 41 1016.3
20260505163416 55 360 9.6 15.6 0.00 0.00 0.00 42 1016.3
20260505163329 55 244 9.6 18.2 0.00 0.00 0.00 42 1016.3
20260505163223 55 211 9.6 18.2 0.00 0.00 0.00 42 1016.3
20260505163133 55 360 9.6 18.2 0.00 0.00 0.00 42 1016.3
20260505163032 55 232 9.6 18.2 0.00 0.00 0.00 42 1016.3
20260505162931 55 243 9.6 18.2 0.00 0.00 0.00 42 1016.3
20260505162821 55 238 11.3 18.2 0.00 0.00 0.00 42 1016.3
20260505162731 55 360 13.0 18.2 0.00 0.00 0.00 42 1016.3
20260505162631 55 360 13.9 18.2 0.00 0.00 0.00 42 1016.3
20260505162527 55 238 12.2 18.2 0.00 0.00 0.00 42 1016.3
20260505162417 55 360 10.4 18.2 0.00 0.00 0.00 41 1016.3
20260505162325 54 227 9.6 19.1 0.00 0.00 0.00 41 1016.3
20260505162216 54 360 12.2 21.7 0.00 0.00 0.00 40 1016.3
20260505162132 54 229 13.0 21.7 0.00 0.00 0.00 40 1016.3
20260505162026 54 227 13.0 21.7 0.00 0.00 0.00 41 1016.3
20260505161919 54 360 13.0 21.7 0.00 0.00 0.00 41 1016.3
20260505161829 54 360 13.9 21.7 0.00 0.00 0.00 41 1016.3
20260505161719 54 360 13.9 21.7 0.00 0.00 0.00 42 1016.3
20260505161649 54 360 14.8 21.7 0.00 0.00 0.00 42 1016.3
20260505161520 54 360 15.6 24.3 0.00 0.00 0.00 42 1016.5
20260505161414 54 360 14.8 24.3 0.00 0.00 0.00 42 1016.5
20260505161324 54 236 14.8 24.3 0.00 0.00 0.00 42 1016.5
20260505161214 55 360 14.8 24.3 0.00 0.00 0.00 42 1016.5
20260505161127 55 222 14.8 24.3 0.00 0.00 0.00 42 1016.5
20260505161017 55 239 14.8 24.3 0.00 0.00 0.00 40 1016.5
20260505160931 55 360 15.6 24.3 0.00 0.00 0.00 39 1016.5
20260505160823 55 248 16.5 24.3 0.00 0.00 0.00 39 1016.5
20260505160733 55 233 14.8 24.3 0.00 0.00 0.00 39 1016.5
20260505160629 55 242 13.9 24.3 0.00 0.00 0.00 40 1016.5
20260505160528 55 215 13.0 19.1 0.00 0.00 0.00 39 1016.5
20260505160424 55 360 14.8 19.1 0.00 0.00 0.00 40 1016.5
20260505160318 55 232 13.0 19.1 0.00 0.00 0.00 40 1016.5
20260505160214 55 236 12.2 19.1 0.00 0.00 0.00 40 1016.5
20260505160136 55 216 12.2 19.1 0.00 0.00 0.00 40 1016.5
20260505153323 55 360 11.3 15.6 0.00 0.00 0.00 39 1016.4
20260505153224 55 360 11.3 15.6 0.00 0.00 0.00 39 1016.4
20260505153134 55 360 11.3 15.6 0.00 0.00 0.00 39 1016.4
20260505153020 55 360 10.4 15.6 0.00 0.00 0.00 40 1016.3
20260505152933 55 246 10.4 15.6 0.00 0.00 0.00 40 1016.3
20260505152823 55 360 10.4 17.4 0.00 0.00 0.00 40 1016.3
20260505152713 55 360 11.3 17.4 0.00 0.00 0.00 40 1016.3
20260505152646 55 211 11.3 17.4 0.00 0.00 0.00 40 1016.3
20260505152542 55 360 10.4 17.4 0.00 0.00 0.00 40 1016.3
20260505152445 55 360 10.4 17.4 0.00 0.00 0.00 40 1016.3
20260505152341 55 360 10.4 17.4 0.00 0.00 0.00 40 1016.3
20260505152217 55 225 10.4 17.4 0.00 0.00 0.00 40 1016.3
20260505152127 55 360 9.6 17.4 0.00 0.00 0.00 40 1016.3
20260505152020 55 191 8.7 13.9 0.00 0.00 0.00 41 1016.3
20260505151914 55 217 7.8 13.9 0.00 0.00 0.00 40 1016.3
20260505151844 55 360 7.8 13.9 0.00 0.00 0.00 41 1016.3
20260505151731 55 229 7.8 13.9 0.00 0.00 0.00 40 1016.3
20260505151627 55 217 8.7 13.9 0.00 0.00 0.00 40 1016.3
20260505151546 55 193 8.7 13.9 0.00 0.00 0.00 40 1016.3
20260505151422 55 193 7.0 14.8 0.00 0.00 0.00 40 1016.3
20260505151319 55 209 5.2 12.2 0.00 0.00 0.00 41 1016.3
20260505151229 55 238 6.1 12.2 0.00 0.00 0.00 41 1016.3
20260505151122 55 360 7.0 12.2 0.00 0.00 0.00 41 1016.3
20260505151035 55 221 7.0 12.2 0.00 0.00 0.00 41 1016.3
20260505150914 55 245 7.8 12.2 0.00 0.00 0.00 40 1016.3
20260505150827 55 232 7.8 13.0 0.00 0.00 0.00 41 1016.3
20260505150721 55 360 7.8 13.0 0.00 0.00 0.00 41 1016.3
20260505150631 55 360 8.7 13.0 0.00 0.00 0.00 41 1016.3
20260505150521 55 222 9.6 13.0 0.00 0.00 0.00 41 1016.3
20260505150431 55 221 8.7 13.0 0.00 0.00 0.00 41 1016.3
20260505150313 55 227 8.7 13.0 0.00 0.00 0.00 41 1016.3
20260505150221 55 360 9.6 13.0 0.00 0.00 0.00 41 1016.3
20260505150131 55 360 9.6 13.0 0.00 0.00 0.00 41 1016.3
20260505140625 55 360 9.6 15.6 0.00 0.00 0.00 43 1016.8
20260505140534 55 215 8.7 15.6 0.00 0.00 0.00 43 1016.8
20260505140430 55 226 8.7 15.6 0.00 0.00 0.00 43 1016.8
20260505140320 55 248 8.7 15.6 0.00 0.00 0.00 43 1016.8
20260505140216 55 228 10.4 20.9 0.00 0.00 0.00 43 1016.8
20260505140142 55 238 11.3 20.9 0.00 0.00 0.00 43 1016.8
20260505130219 56 235 8.7 16.5 0.00 0.00 0.00 40 1016.3
20260505130139 56 360 8.7 16.5 0.00 0.00 0.00 40 1016.3
20260505125020 56 226 10.4 16.5 0.00 0.00 0.00 39 1016.2
20260505124916 56 360 9.6 16.5 0.00 0.00 0.00 39 1016.2
20260505124830 56 360 9.6 16.5 0.00 0.00 0.00 39 1016.2
20260505124720 56 360 11.3 16.5 0.00 0.00 0.00 39 1016.2
20260505124641 56 242 11.3 16.5 0.00 0.00 0.00 39 1016.2
20260505124520 56 360 9.6 20.0 0.00 0.00 0.00 39 1016.2
20260505124430 56 360 7.8 20.0 0.00 0.00 0.00 39 1016.2
20260505124329 56 360 7.8 20.0 0.00 0.00 0.00 39 1016.2
20260505124223 56 218 7.8 20.0 0.00 0.00 0.00 38 1016.2
20260505124133 56 246 8.7 20.0 0.00 0.00 0.00 38 1016.2
20260505124029 56 246 9.6 20.0 0.00 0.00 0.00 38 1016.2
20260505123922 56 263 11.3 20.0 0.00 0.00 0.00 38 1016.2
20260505123818 56 360 13.9 20.0 0.00 0.00 0.00 39 1016.2
20260505123732 56 360 13.0 20.0 0.00 0.00 0.00 38 1016.2
20260505123622 56 243 13.0 20.0 0.00 0.00 0.00 38 1016.2
20260505123532 56 360 11.3 17.4 0.00 0.00 0.00 38 1016.2
20260505123422 56 262 10.4 17.4 0.00 0.00 0.00 38 1016.2
20260505123318 56 360 9.6 17.4 0.00 0.00 0.00 38 1016.2
20260505123214 56 238 10.4 17.4 0.00 0.00 0.00 38 1016.2
20260505123137 56 244 11.3 17.4 0.00 0.00 0.00 38 1016.2
20260505123036 56 360 13.0 17.4 0.00 0.00 0.00 38 1016.0
20260505122932 56 360 11.3 17.4 0.00 0.00 0.00 38 1016.0
20260505122829 56 360 11.3 17.4 0.00 0.00 0.00 38 1016.0
20260505122721 56 217 9.6 16.5 0.00 0.00 0.00 38 1016.0
20260505122631 56 253 10.4 16.5 0.00 0.00 0.00 38 1016.0
20260505122531 56 360 10.4 16.5 0.00 0.00 0.00 38 1016.0
20260505122421 56 360 11.3 16.5 0.00 0.00 0.00 38 1016.0
20260505122318 56 360 10.4 19.1 0.00 0.00 0.00 38 1016.0
20260505122227 56 360 10.4 19.1 0.00 0.00 0.00 38 1016.0
20260505122117 56 270 10.4 19.1 0.00 0.00 0.00 38 1016.0
20260505122011 56 360 11.3 19.1 0.00 0.00 0.00 38 1016.0
20260505121944 56 360 12.2 19.1 0.00 0.00 0.00 38 1016.0
20260505121820 56 360 12.2 19.1 0.00 0.00 0.00 38 1016.0
20260505121721 56 360 11.3 19.1 0.00 0.00 0.00 38 1016.0
20260505121651 56 360 10.4 19.1 0.00 0.00 0.00 38 1016.0
20260505121516 56 360 9.6 13.9 0.00 0.00 0.00 38 1015.7
20260505121430 56 261 8.7 13.9 0.00 0.00 0.00 38 1015.7
20260505121320 56 360 9.6 13.9 0.00 0.00 0.00 38 1015.7
20260505121231 56 360 9.6 13.9 0.00 0.00 0.00 38 1015.7
20260505121120 56 360 9.6 13.9 0.00 0.00 0.00 38 1015.7
20260505121030 56 360 8.7 13.9 0.00 0.00 0.00 38 1015.7
20260505120910 56 360 7.8 13.9 0.00 0.00 0.00 38 1015.7
20260505120823 56 360 7.8 12.2 0.00 0.00 0.00 38 1015.7
20260505120719 56 360 8.7 12.2 0.00 0.00 0.00 38 1015.7
20260505120629 56 229 8.7 12.2 0.00 0.00 0.00 38 1015.7
20260505120542 56 360 7.8 12.2 0.00 0.00 0.00 38 1015.7
20260505120418 56 261 7.8 12.2 0.00 0.00 0.00 38 1015.7
20260505120332 56 360 7.8 12.2 0.00 0.00 0.00 37 1015.7
20260505120219 56 275 7.8 13.0 0.00 0.00 0.00 37 1015.7
20260505120129 56 267 7.8 13.0 0.00 0.00 0.00 37 1015.7
20260505120017 56 263 7.8 13.0 0.00 0.00 0.00 37 1015.9
20260505115927 56 258 8.7 13.0 0.00 0.00 0.00 37 1015.9
20260505115823 56 247 8.7 13.0 0.00 0.00 0.00 37 1015.9
20260505115737 56 242 8.7 13.0 0.00 0.00 0.00 37 1015.9
20260505115613 56 360 8.7 13.0 0.00 0.00 0.00 37 1015.9
20260505115523 56 256 8.7 13.0 0.00 0.00 0.00 37 1015.9
20260505115416 56 360 8.7 13.0 0.00 0.00 0.00 37 1015.9
20260505115326 56 360 8.7 13.0 0.00 0.00 0.00 37 1015.9
20260505115220 56 360 8.7 13.0 0.00 0.00 0.00 37 1015.9
20260505115130 56 360 7.8 13.9 0.00 0.00 0.00 37 1015.9
20260505115026 56 360 7.8 13.9 0.00 0.00 0.00 37 1015.9
20260505114922 56 360 8.7 13.9 0.00 0.00 0.00 37 1015.9
20260505114815 56 360 7.8 13.9 0.00 0.00 0.00 37 1015.9
20260505114722 56 260 7.8 13.9 0.00 0.00 0.00 37 1015.9
20260505114632 56 263 7.8 13.9 0.00 0.00 0.00 37 1015.9
20260505114510 56 242 8.7 13.9 0.00 0.00 0.00 36 1016.1
20260505114430 56 360 9.6 13.9 0.00 0.00 0.00 36 1016.1
20260505114322 56 360 9.6 13.9 0.00 0.00 0.00 36 1016.1
20260505114218 56 360 8.7 18.2 0.00 0.00 0.00 36 1016.1
20260505114132 56 360 9.6 18.2 0.00 0.00 0.00 36 1016.1
20260505114022 56 254 9.6 18.2 0.00 0.00 0.00 36 1016.1
20260505113932 56 248 9.6 18.2 0.00 0.00 0.00 36 1016.1
20260505113828 56 266 9.6 18.2 0.00 0.00 0.00 36 1016.1
20260505113721 56 360 10.4 18.2 0.00 0.00 0.00 36 1016.1
20260505113631 56 244 10.4 18.2 0.00 0.00 0.00 36 1016.1
20260505113511 56 263 11.3 18.2 0.00 0.00 0.00 36 1016.1
20260505113430 56 360 11.3 18.2 0.00 0.00 0.00 36 1016.1
20260505113340 56 360 10.4 18.2 0.00 0.00 0.00 37 1016.1
20260505113216 56 360 8.7 15.6 0.00 0.00 0.00 37 1016.1
20260505113145 56 261 8.7 15.6 0.00 0.00 0.00 37 1016.1
20260505113029 56 242 8.7 15.6 0.00 0.00 0.00 37 1016.1
20260505112925 56 246 10.4 15.6 0.00 0.00 0.00 36 1016.1
20260505112815 56 240 11.3 15.6 0.00 0.00 0.00 36 1016.1
20260505112712 56 360 11.3 15.6 0.00 0.00 0.00 36 1016.1
20260505112644 56 360 10.4 15.6 0.00 0.00 0.00 37 1016.1
20260505112520 56 257 9.6 16.5 0.00 0.00 0.00 36 1016.1
20260505112414 56 360 10.4 16.5 0.00 0.00 0.00 36 1016.1
20260505112324 57 232 11.3 16.5 0.00 0.00 0.00 36 1016.1
20260505112214 57 235 11.3 17.4 0.00 0.00 0.00 36 1016.1
20260505112130 56 360 10.4 17.4 0.00 0.00 0.00 36 1016.1
20260505112026 57 360 10.4 17.4 0.00 0.00 0.00 36 1016.1
20260505111916 57 360 9.6 17.4 0.00 0.00 0.00 36 1016.1
20260505111830 57 360 11.3 17.4 0.00 0.00 0.00 36 1016.1
20260505111731 57 360 11.3 20.0 0.00 0.00 0.00 36 1016.1
20260505111627 57 254 12.2 20.0 0.00 0.00 0.00 36 1016.1
20260505111526 57 360 11.3 20.0 0.00 0.00 0.00 36 1016.0
20260505111416 57 360 10.4 20.0 0.00 0.00 0.00 36 1016.0
20260505111326 57 360 9.6 20.0 0.00 0.00 0.00 36 1016.0
20260505111220 57 360 8.7 20.0 0.00 0.00 0.00 36 1016.0
20260505111130 57 244 9.6 20.0 0.00 0.00 0.00 36 1016.0
20260505111020 57 360 12.2 20.0 0.00 0.00 0.00 36 1016.0
20260505110933 57 360 13.0 20.0 0.00 0.00 0.00 36 1016.0
20260505110815 57 360 12.2 20.0 0.00 0.00 0.00 36 1016.0
20260505110729 57 360 12.2 20.0 0.00 0.00 0.00 36 1016.0
20260505110618 57 360 13.0 20.0 0.00 0.00 0.00 36 1016.0
20260505110528 57 360 13.9 20.0 0.00 0.00 0.00 36 1016.0
20260505110427 57 360 14.8 20.0 0.00 0.00 0.00 36 1016.0
20260505110324 57 244 13.9 20.0 0.00 0.00 0.00 36 1016.0
20260505110223 57 360 13.0 20.0 0.00 0.00 0.00 36 1016.0
20260505110143 57 360 12.2 20.0 0.00 0.00 0.00 36 1016.0